GFSNGP_con_lsi_000.txt.gz
Lid_Strength_Index
12 11 11 12 12 12 13 13 16 14 13 11 10 10 9 8 7 7 7 7 7 7 7 7 6 6 7 7 7 8 9 9 9 8 8 8 8 7 6 6 6 7 7 8
14 11 12 13 12 11 12 12 12 12 12 9 8 8 8 8 7 7 7 7 7 6 6 6 6 7 7 7 7 6 6 6 6 6 6 6 5 5 5 6 7 8 8 9
16 13 14 16 13 13 12 11 12 15 12 9 9 8 8 7 7 7 7 7 7 6 6 6 7 7 7 7 6 5 5 5 5 4 4 5 5 5 7 8 9 10 10 10
17 15 20 12 10 10 11 11 10 10 9 8 8 7 6 6 6 7 7 6 6 6 6 7 7 7 7 6 6 5 5 5 5 4 5 6 7 8 9 10 10 11 11 10
18 17 15 12 11 12 14 12 9 10 9 8 7 7 8 7 5 5 6 5 5 7 7 7 8 7 7 7 6 7 8 8 7 7 8 8 9 10 10 11 11 11 10 10
16 18 19 14 11 8 9 15 8 8 9 9 8 12 9 6 6 6 5 6 7 7 8 8 8 8 10 10 10 10 7 7 7 7 8 9 10 10 11 12 11 10 10 10
21 19 17 11 9 8 17 15 10 8 7 8 9 8 6 5 6 6 8 8 7 7 8 8 7 7 10 10 10 7 6 7 7 8 8 9 10 11 12 12 12 15 15 13
17 17 18 9 8 12 10 9 7 7 7 7 7 7 6 7 7 7 8 8 7 7 8 6 8 9 10 10 7 7 7 8 8 8 9 10 11 11 11 12 14 15 17 16
14 15 10 8 7 7 6 7 7 7 6 6 7 7 7 8 9 8 9 9 8 8 7 7 9 9 9 8 7 8 9 9 9 9 10 10 11 11 12 12 15 15 13 15
12 10 9 8 6 5 6 7 5 5 5 5 6 7 8 8 8 8 9 9 8 7 7 8 9 9 8 8 8 9 9 9 9 10 10 11 10 11 11 15 15 12 13 12
10 9 8 7 7 6 5 4 5 5 6 6 6 7 7 8 8 8 9 8 7 6 7 8 8 8 8 8 8 9 9 9 10 10 11 10 10 10 11 11 12 12 13 10
12 7 8 7 5 5 6 6 7 7 7 7 6 6 7 8 8 8 8 6 6 6 7 7 8 8 8 8 9 9 9 10 11 12 12 11 10 10 7 7 6 7 7 8
8 5 6 5 5 5 6 6 6 6 6 7 6 6 7 8 7 7 5 5 5 6 7 8 8 8 8 9 10 11 11 10 11 11 11 11 11 11 13 10 7 7 7 8
5 5 7 6 7 6 6 5 6 6 5 5 6 7 7 7 7 7 6 6 6 7 7 8 8 9 8 9 10 13 13 12 12 11 11 11 15 14 15 16 17 14 10 9
5 5 6 6 6 6 6 6 6 7 6 6 6 7 8 8 8 8 8 7 8 8 8 8 9 9 8 8 8 9 9 11 14 12 12 14 14 15 16 17 16 16 15 11
6 7 6 7 7 6 6 7 7 8 7 7 7 8 8 8 8 8 7 8 10 10 10 12 14 10 8 8 8 8 9 9 10 10 11 12 13 15 15 16 17 17 17 13
8 9 7 8 8 7 7 7 7 8 7 7 8 10 9 10 9 9 9 10 12 13 13 12 10 7 8 7 7 8 10 9 7 8 12 11 15 16 16 18 19 18 15 14
6 7 7 7 7 7 8 8 9 9 8 8 11 12 11 13 11 10 11 12 12 13 10 9 9 8 10 7 8 10 12 9 8 12 12 15 16 14 18 18 20 17 15 15
7 7 7 7 7 7 8 8 9 9 9 7 9 10 11 12 9 11 12 13 12 13 10 12 8 8 9 7 8 12 13 12 12 11 14 16 17 17 18 20 18 18 17 16
6 6 6 6 7 9 9 9 10 9 7 7 9 9 10 9 9 11 10 12 9 9 9 8 8 8 8 8 8 10 10 12 12 13 17 17 17 18 18 16 16 18 19 18
7 7 8 9 9 11 6 6 7 6 6 7 7 9 9 11 12 11 14 10 9 8 8 8 8 8 7 9 9 12 8 8 11 15 17 16 17 19 20 17 16 18 19 18
7 9 9 9 10 8 8 6 8 7 6 7 10 9 11 10 13 14 13 9 8 7 8 8 8 7 8 9 8 7 7 7 10 16 15 15 16 18 20 17 17 18 19 19
7 7 7 8 8 8 7 5 7 5 5 7 9 9 9 10 12 14 12 9 8 7 8 8 7 7 8 8 7 7 7 7 11 13 14 14 16 19 21 17 17 18 19 18
7 7 7 7 10 7 7 6 8 6 5 8 7 7 8 10 12 10 9 8 7 7 7 7 7 8 8 8 8 7 7 8 12 13 12 13 14 18 20 18 16 18 18 19
7 7 8 9 9 7 7 6 6 7 7 7 7 7 7 7 8 12 9 9 7 7 7 8 7 7 8 8 8 7 7 11 14 13 13 14 14 17 19 18 18 17 18 19
6 6 6 7 6 5 5 7 6 6 7 7 8 7 7 8 8 9 9 9 9 7 8 7 7 8 7 8 9 8 7 9 9 14 16 16 16 17 18 19 20 18 18 19
7 9 8 7 7 6 6 6 6 7 7 7 7 6 7 8 8 8 8 8 8 8 8 7 7 7 7 8 8 9 11 8 9 14 14 14 16 14 15 17 17 17 18 19

GFSNGP_con_lsi_003.txt.gz
Lid_Strength_Index
12 12 12 12 12 12 13 13 16 14 14 11 11 10 9 8 8 8 7 7 6 6 7 6 7 7 7 7 7 7 7 9 9 8 7 8 6 5 5 5 5 5 6 7
15 12 12 13 12 12 12 12 13 13 13 11 9 9 8 8 7 8 8 7 6 6 6 6 6 7 7 7 7 6 7 6 5 5 4 5 4 4 4 4 4 6 8 8
18 14 15 17 15 13 13 12 13 15 13 10 9 9 8 8 7 8 7 7 7 7 7 6 7 8 8 8 7 6 6 5 4 5 4 4 3 4 4 7 8 9 9 9
19 15 20 13 11 11 12 11 11 11 10 9 8 7 7 6 7 8 7 7 7 5 6 7 7 8 8 7 7 6 6 8 7 7 6 6 7 8 9 9 10 10 10 10
17 17 16 12 11 13 14 13 10 10 9 8 7 9 9 7 7 7 7 6 6 7 7 8 9 10 10 10 9 8 8 8 7 7 7 8 9 10 10 10 10 10 10 10
16 18 19 14 12 10 10 15 10 9 9 8 9 12 9 6 6 6 6 5 7 8 8 9 9 10 9 9 9 8 6 7 7 7 8 9 10 10 10 11 10 10 10 10
17 17 17 12 10 9 16 14 10 8 7 8 9 7 6 6 6 6 6 6 7 8 9 8 8 10 10 9 8 7 7 7 7 7 8 9 10 10 11 11 11 14 15 14
17 18 19 10 9 12 10 9 9 8 8 8 7 6 7 6 6 6 8 8 8 9 8 7 9 10 10 9 8 8 8 8 8 9 9 9 11 11 11 11 13 14 17 15
13 14 10 9 8 7 7 8 9 8 6 5 7 7 7 7 6 7 8 10 9 9 8 7 9 9 8 8 8 8 9 9 9 9 10 10 10 11 11 12 14 14 12 13
12 10 9 7 6 5 6 7 5 6 7 8 9 8 8 7 8 8 8 9 9 8 7 8 7 8 7 7 8 8 9 9 9 10 10 10 10 10 10 13 13 10 11 11
10 8 8 7 6 6 5 6 7 7 7 7 7 7 7 8 8 9 9 9 8 7 7 7 7 8 8 8 8 9 9 9 9 10 10 10 9 9 9 9 11 10 12 10
12 8 8 7 6 7 7 7 7 7 7 6 7 7 7 7 7 8 9 8 7 7 7 7 8 9 8 8 9 9 9 9 11 12 11 9 9 9 6 7 6 6 6 8
8 6 6 6 7 7 7 7 6 6 6 7 7 7 7 7 7 8 7 6 7 6 7 8 9 9 9 10 11 11 12 10 11 10 10 10 11 11 15 11 8 8 7 7
6 5 7 7 8 7 7 7 7 7 6 6 6 7 7 6 7 7 7 7 7 8 8 9 9 10 9 9 10 13 14 13 14 13 13 12 14 14 18 17 18 15 11 9
7 6 7 7 7 8 8 7 7 7 7 7 6 6 6 7 7 7 7 7 8 8 9 9 11 10 9 8 9 10 9 11 15 14 15 15 14 17 18 18 17 17 16 13
8 8 8 9 8 8 8 8 8 7 8 8 7 8 7 8 7 7 7 8 9 11 10 14 14 9 7 7 8 9 8 11 12 11 14 14 15 17 16 17 18 17 19 16
10 10 9 10 10 10 9 8 8 8 8 8 9 10 8 8 9 9 9 11 14 15 10 10 11 8 8 8 7 10 11 11 8 11 13 14 16 17 18 19 20 18 19 16
9 8 8 8 8 9 9 8 8 9 9 8 9 7 8 9 10 11 11 13 15 12 10 12 13 8 10 8 8 12 14 11 10 14 14 17 17 17 19 19 18 18 18 17
8 8 7 7 6 8 8 8 9 10 10 11 10 7 8 9 11 9 11 13 14 11 11 10 8 8 8 8 8 10 14 14 14 13 16 18 18 18 20 20 18 19 19 18
8 7 7 7 7 9 9 9 8 7 7 7 9 10 8 9 11 10 11 12 12 10 9 8 8 9 9 9 9 11 13 13 11 14 19 19 21 21 22 19 16 19 21 21
9 8 9 9 9 10 12 9 8 7 6 6 7 7 8 9 12 13 12 10 10 9 8 8 8 8 8 8 8 13 10 9 10 17 19 19 21 21 22 22 19 20 21 20
8 9 10 10 10 9 8 10 9 6 6 5 5 7 11 9 10 10 10 10 9 8 9 8 8 8 8 8 8 9 8 9 10 16 16 18 21 22 22 22 20 20 20 20
8 8 8 9 9 8 9 10 8 7 7 5 5 8 8 8 9 10 10 11 9 8 8 8 8 7 8 8 8 8 9 9 9 16 15 15 17 22 22 21 21 20 21 20
8 8 8 8 9 11 10 7 8 8 8 8 9 6 7 8 9 9 9 10 9 10 8 7 7 8 8 10 8 8 8 8 9 16 15 14 17 20 22 22 21 22 21 20
9 8 9 10 9 8 7 7 8 9 8 8 8 7 7 7 8 10 12 13 10 9 9 8 12 12 13 9 9 8 8 9 12 14 16 16 15 15 22 22 22 22 22 20
7 7 6 7 7 7 7 7 7 6 7 7 11 9 7 7 7 8 8 9 10 9 9 9 9 11 12 11 10 11 12 11 10 13 16 17 17 14 17 20 22 22 21 20
8 10 7 6 6 7 6 6 6 6 6 9 11 9 7 7 8 8 9 9 9 9 9 9 9 9 14 15 15 14 11 11 13 12 13 13 14 13 14 14 17 19 21 22

GFSNGP_con_lsi_006.txt.gz
Lid_Strength_Index
13 12 12 12 13 12 14 14 16 14 14 12 11 11 10 9 8 8 8 8 8 7 6 6 6 6 7 7 7 7 7 7 8 7 7 7 7 6 5 4 4 3 4 5
15 13 13 14 13 12 13 13 13 12 13 10 11 10 9 8 8 8 8 8 7 7 7 6 6 7 7 7 7 7 8 8 6 5 5 5 4 4 3 4 4 4 6 8
19 15 16 18 15 14 13 12 13 15 12 12 11 10 9 8 8 8 9 8 8 7 6 6 7 7 8 8 8 8 7 7 7 6 5 5 4 4 5 6 8 9 9 9
19 15 20 14 12 12 13 12 12 12 12 11 10 9 9 8 8 9 8 7 7 7 6 7 7 8 9 9 9 9 9 8 7 7 7 7 8 8 9 9 9 10 10 9
16 17 16 13 12 14 14 14 12 12 10 10 9 10 10 8 8 7 7 7 7 7 7 8 8 10 11 11 10 9 8 7 7 8 8 8 9 10 10 10 10 10 9 10
16 18 20 14 12 11 10 16 11 9 9 8 9 12 9 7 7 7 7 6 7 7 8 8 8 9 9 9 10 10 8 8 8 8 9 10 10 10 10 10 9 9 10 10
15 17 16 12 11 10 15 15 10 9 8 9 10 9 9 8 8 7 7 6 6 7 8 8 8 9 10 10 10 8 8 8 8 9 9 10 11 10 11 10 11 13 14 13
17 17 19 11 10 13 10 9 8 8 8 8 8 8 8 8 8 8 7 7 7 8 8 7 6 9 9 9 8 8 8 9 9 9 9 10 10 10 10 11 12 13 15 13
13 15 11 9 8 8 8 8 9 9 8 9 10 9 9 9 8 7 6 7 8 9 8 6 6 7 7 6 7 8 9 9 9 9 9 9 10 11 10 11 12 12 10 11
12 11 9 7 7 7 7 7 8 8 8 8 9 9 9 8 8 7 7 8 8 8 7 6 6 5 7 8 8 8 9 9 9 9 10 10 10 9 9 12 12 10 11 11
11 8 8 8 8 8 8 8 8 7 8 8 9 9 8 8 8 7 7 7 7 7 6 6 6 7 8 8 8 9 9 8 9 9 10 9 9 9 9 9 11 10 12 12
12 8 8 7 7 7 8 8 7 7 8 7 7 8 8 8 7 7 7 7 7 6 6 6 7 7 8 9 9 9 9 9 11 12 11 9 9 9 7 7 7 7 7 9
8 6 6 7 7 7 8 9 7 8 8 9 8 8 8 8 7 6 7 7 7 7 7 8 8 8 9 10 11 11 12 11 13 11 12 12 12 12 14 11 8 8 8 9
6 6 9 9 9 7 7 8 8 8 8 7 7 8 8 8 7 7 7 8 7 7 8 9 8 9 9 9 10 13 14 14 13 13 14 14 17 15 17 18 18 16 12 10
8 8 8 7 7 8 9 10 10 10 9 9 8 8 8 8 8 7 7 7 7 8 8 8 10 9 9 8 8 10 10 12 17 17 17 17 17 17 19 19 19 17 15 14
9 9 9 11 11 10 10 10 10 10 9 9 9 8 8 8 8 7 7 8 10 10 9 11 10 9 8 7 7 9 10 12 15 14 15 15 16 17 16 18 17 15 17 17
11 11 11 12 11 10 10 9 9 9 9 8 9 10 8 8 10 9 10 12 14 13 11 10 12 8 8 7 8 11 13 13 13 13 14 15 17 18 19 18 16 16 19 19
10 10 10 9 9 9 10 9 9 9 9 9 11 11 8 9 10 9 13 13 13 9 9 12 13 9 9 7 8 9 12 15 14 16 15 18 18 18 20 19 17 18 18 17
10 9 9 8 8 8 9 8 9 9 11 7 8 9 8 8 9 11 10 9 10 10 11 11 8 8 9 9 8 9 10 14 16 15 17 18 20 20 22 23 20 21 20 18
10 10 9 9 9 10 9 9 10 10 9 8 6 7 7 7 7 11 9 9 10 9 9 9 9 9 9 9 9 10 14 14 12 16 21 20 22 22 24 22 20 21 22 21
10 10 10 11 10 10 11 11 11 10 9 10 6 6 6 6 10 10 10 9 9 9 8 9 9 9 8 8 8 9 10 9 14 18 20 19 21 22 24 25 24 23 23 21
9 10 11 11 11 10 9 10 10 11 10 7 6 6 5 10 10 10 10 8 8 8 9 9 9 8 8 8 9 9 8 9 10 16 19 19 18 20 22 24 24 22 23 21
9 9 9 11 11 8 8 9 10 10 10 8 7 6 6 9 10 12 11 10 10 8 9 12 10 8 8 10 9 9 9 9 10 11 14 15 16 17 21 22 23 22 23 22
9 9 9 9 10 11 11 8 8 9 10 10 9 6 7 10 10 11 11 8 9 11 14 12 9 9 9 10 10 9 9 9 9 14 17 19 21 19 20 23 22 24 25 24
9 9 10 11 10 8 8 7 7 7 9 9 7 7 9 9 10 12 13 12 12 12 12 10 9 12 13 10 9 11 11 9 8 10 17 18 18 19 19 22 20 20 23 23
8 8 7 8 7 7 7 7 6 6 6 6 7 10 12 9 9 8 8 8 12 12 10 11 10 11 13 13 10 9 11 12 12 11 13 14 15 14 14 15 18 18 19 18
9 10 8 8 7 7 7 5 5 5 5 5 7 12 9 7 7 8 8 9 9 10 13 11 11 10 10 15 15 15 14 13 13 12 12 13 14 14 12 13 14 15 18 19

GFSNGP_con_lsi_009.txt.gz
Lid_Strength_Index
11 11 11 11 12 11 13 12 15 13 12 10 9 8 8 6 6 7 6 6 6 7 7 6 6 5 5 5 5 4 5 5 5 5 5 5 5 4 3 3 2 2 2 3
14 12 12 14 12 12 11 11 12 11 12 8 8 8 7 7 7 7 7 8 8 8 8 6 5 6 6 5 5 5 5 6 6 6 5 4 4 3 3 3 4 5 6 6
16 14 14 15 14 12 12 11 11 13 10 9 9 8 7 7 7 8 9 9 9 8 7 6 5 6 6 5 5 5 6 6 5 4 5 5 5 5 5 6 6 6 6 6
15 14 19 11 10 10 11 11 10 11 10 9 8 7 7 8 9 9 9 9 8 7 6 5 5 5 6 6 6 6 5 5 5 5 6 5 5 6 6 6 6 7 6 6
16 16 14 11 10 11 12 12 10 10 9 8 7 7 8 8 8 9 9 7 7 6 5 6 6 5 6 6 6 6 5 5 5 5 6 6 7 7 7 7 6 6 7 7
15 18 19 12 10 9 9 14 9 8 8 8 8 11 9 9 8 8 7 7 6 5 6 6 5 4 5 5 5 5 5 5 5 6 6 7 7 7 7 7 7 7 7 7
14 16 14 10 10 9 15 13 9 8 7 8 10 10 9 8 8 7 7 7 6 6 6 5 4 4 5 6 6 5 5 5 6 6 7 7 7 7 7 7 7 7 7 6
16 16 17 10 9 11 9 7 8 7 7 9 9 9 9 7 7 8 8 7 5 5 5 4 3 4 5 5 3 3 5 6 6 6 7 7 7 7 6 6 6 7 7 6
12 12 9 8 7 6 7 7 8 8 8 9 9 9 7 7 7 6 6 5 4 5 5 4 3 3 4 3 3 4 5 6 6 6 6 6 7 6 6 6 6 7 7 8
12 9 8 7 6 6 7 8 7 7 8 7 8 7 7 7 6 6 6 5 5 5 5 4 3 3 3 3 4 5 6 6 6 6 6 6 6 6 6 6 6 7 8 8
11 8 8 7 6 7 7 7 7 7 7 7 7 7 7 7 7 6 6 5 5 5 5 4 3 3 4 5 5 6 6 6 6 6 6 7 6 6 6 6 7 8 8 8
12 7 8 7 6 7 8 8 8 8 8 7 7 7 7 7 7 6 6 5 5 5 5 5 5 6 6 6 6 7 7 6 6 7 7 7 7 6 6 7 7 8 8 8
8 6 7 7 7 7 8 8 8 8 8 9 8 7 7 7 6 6 6 5 5 6 6 6 6 6 6 6 7 8 7 7 7 8 7 7 7 7 8 7 8 9 9 9
7 7 9 9 9 8 9 9 9 8 8 8 7 7 7 6 6 6 6 5 5 6 6 6 6 6 6 6 7 8 8 11 7 7 7 7 7 7 8 9 10 10 10 10
9 8 8 9 10 9 8 8 9 9 9 8 7 7 6 6 6 6 5 5 6 6 6 6 7 7 6 6 7 7 7 7 7 8 8 9 8 7 8 9 10 10 11 11
10 11 10 10 9 8 8 9 9 9 8 7 7 6 6 6 7 6 6 6 9 7 7 8 7 7 7 7 6 6 6 8 10 8 8 8 8 8 8 9 10 11 12 12
11 11 10 10 9 9 9 8 8 8 7 7 7 8 7 7 7 8 7 8 10 9 8 7 8 7 8 6 6 6 7 7 10 7 8 8 8 8 9 9 10 11 12 12
9 9 9 10 10 9 8 8 8 8 7 7 8 7 8 8 8 8 7 8 9 8 7 7 8 8 8 6 6 7 7 8 7 8 8 8 8 9 9 9 10 11 11 12
10 10 10 9 8 9 8 8 8 8 8 9 10 8 6 6 6 6 7 8 8 8 7 8 8 7 8 7 7 7 7 7 7 8 9 10 8 9 9 9 10 10 11 12
10 9 9 9 9 10 9 8 9 8 8 8 9 9 7 5 5 5 8 8 6 6 7 7 7 8 7 7 7 7 7 8 8 8 9 9 9 9 9 11 11 10 11 12
10 9 10 10 10 10 11 10 10 9 8 8 11 9 7 5 5 6 8 7 6 7 7 7 7 7 7 7 7 6 7 7 7 7 8 9 9 9 9 9 10 10 10 10
9 9 10 10 10 9 8 8 8 9 9 9 9 7 6 6 5 7 8 7 5 8 6 6 7 7 7 7 7 7 7 7 7 7 8 8 9 9 9 9 10 10 9 10
8 9 8 10 10 8 8 8 9 9 9 8 7 6 7 6 5 7 7 6 6 7 6 6 9 7 6 6 7 7 7 7 7 7 7 8 8 9 9 9 9 10 10 10
8 8 8 8 9 9 9 6 6 7 7 6 6 6 6 6 6 6 6 6 7 7 7 7 7 7 9 6 7 7 7 6 6 6 7 10 8 9 9 10 10 9 11 12
8 8 8 9 8 7 6 6 6 6 5 5 4 5 5 6 6 6 6 6 7 7 7 9 8 8 7 7 7 7 7 7 7 6 6 7 8 8 8 9 10 10 10 10
7 7 7 7 7 6 6 6 6 6 5 5 4 4 6 6 6 6 6 6 7 8 6 6 6 7 7 7 7 7 7 7 7 7 7 7 7 8 8 8 9 9 10 10
7 10 7 6 5 5 5 5 5 6 5 5 5 4 6 6 5 5 6 6 6 6 6 6 6 6 6 7 7 8 8 8 9 8 7 7 7 7 8 8 7 8 9 10

GFSNGP_con_lsi_012.txt.gz
Lid_Strength_Index
9 9 9 10 10 9 10 10 13 11 10 8 7 7 6 6 5 5 5 5 5 5 6 6 6 4 4 4 4 4 4 4 4 3 3 3 3 3 2 2 2 3 3 3
12 10 10 11 9 9 9 9 10 10 10 7 7 6 6 6 6 6 6 7 8 7 7 7 6 4 5 5 5 4 4 4 4 3 3 3 3 2 2 3 3 3 4 4
16 11 11 15 11 10 9 9 9 12 9 7 7 7 6 6 6 7 8 9 8 7 7 5 4 5 5 5 5 4 4 4 3 3 3 3 3 3 4 4 4 4 4 4
15 14 19 10 7 8 9 8 8 8 8 7 6 6 5 6 7 9 8 8 7 6 5 4 4 5 5 5 4 3 3 3 3 3 3 3 4 4 4 4 4 4 4 4
16 15 12 10 9 9 10 10 7 8 7 6 5 5 6 8 8 7 7 6 6 5 4 3 3 3 3 3 3 3 3 3 3 3 3 4 4 5 4 4 4 4 4 4
14 17 18 10 8 7 7 12 7 7 7 7 6 11 9 8 6 6 5 5 5 5 4 3 2 2 2 2 3 3 3 2 2 3 4 4 4 4 4 4 4 4 4 4
14 16 12 8 8 7 15 13 6 7 7 8 10 9 7 6 6 6 5 5 5 4 4 3 2 2 2 2 3 3 2 2 2 3 4 4 4 3 4 4 4 5 5 4
14 16 17 7 8 12 7 6 7 7 8 8 8 7 7 7 7 6 6 5 5 5 4 3 2 2 2 2 2 1 1 2 3 3 4 4 4 3 4 4 5 5 5 5
11 11 6 6 6 5 5 6 8 7 7 7 8 8 8 7 7 6 5 5 4 4 4 3 2 2 2 2 1 2 2 3 3 4 4 3 4 4 5 5 6 6 6 6
10 7 6 6 5 5 6 7 7 7 7 8 8 8 8 7 6 6 5 5 4 4 5 4 2 2 2 2 2 2 2 3 3 4 4 3 4 5 5 6 6 7 7 7
9 7 6 6 6 6 7 7 8 7 7 8 8 8 7 7 6 6 6 5 5 5 4 4 3 3 2 3 3 3 3 4 4 4 4 4 4 5 5 5 6 7 7 7
12 7 7 7 7 6 7 8 8 8 9 8 8 7 7 7 6 6 5 5 5 4 4 4 3 3 4 3 4 4 5 5 4 4 4 5 5 5 7 7 7 8 9 8
7 6 6 6 7 7 8 8 9 8 8 7 6 7 7 7 6 6 4 4 4 4 3 4 4 4 4 4 4 5 5 5 4 5 5 6 6 7 7 5 7 8 9 9
6 6 8 7 8 8 9 8 7 7 6 7 7 6 6 5 5 4 4 3 3 3 3 4 4 4 4 4 5 6 5 7 5 5 5 6 6 7 6 7 7 7 8 10
7 6 7 8 8 8 7 8 8 8 7 7 6 5 5 5 5 4 3 3 4 4 4 4 4 5 5 5 6 6 5 5 5 5 6 6 7 7 6 7 7 8 8 9
8 8 8 9 9 9 8 8 9 8 7 6 6 6 5 4 4 4 5 5 6 6 5 5 6 6 6 6 6 6 6 7 6 6 6 7 7 7 7 7 7 7 8 10
10 11 10 10 10 9 9 8 7 7 7 6 6 6 5 6 6 6 5 6 5 6 6 5 6 5 6 6 7 6 6 6 7 6 7 7 7 7 7 7 7 7 8 9
10 9 9 9 9 8 8 7 7 7 7 6 7 7 7 7 6 5 5 5 5 6 5 5 6 6 7 6 6 6 5 5 6 7 7 7 7 7 7 7 7 8 8 9
9 9 8 8 7 7 7 7 7 7 7 7 7 7 6 6 5 4 5 5 6 6 5 5 7 7 7 6 7 6 6 6 6 6 6 7 7 7 7 7 7 7 8 8
9 8 7 7 7 7 7 7 7 7 6 6 6 7 7 6 5 5 4 5 5 4 4 5 6 6 6 6 7 7 6 6 6 6 6 7 7 7 7 8 8 7 7 8
9 8 8 8 8 7 8 7 8 7 6 6 7 7 6 6 5 4 5 5 3 4 4 5 5 5 6 6 6 6 6 6 6 6 6 7 7 7 7 7 7 7 7 7
8 7 8 8 7 7 6 5 5 6 6 6 6 6 6 5 4 4 4 5 3 5 4 5 4 5 5 6 6 5 6 6 6 5 6 6 7 7 7 7 7 7 7 7
7 7 7 7 7 6 6 6 6 6 6 5 6 6 5 4 5 5 5 4 3 4 4 4 5 6 6 5 5 5 5 6 6 5 5 6 6 6 6 6 7 7 7 7
6 6 6 5 6 6 6 5 4 4 5 4 4 4 4 4 4 3 4 4 5 5 4 4 5 6 6 5 5 5 5 5 5 5 5 6 6 6 6 6 7 7 7 8
5 5 5 6 5 4 5 5 5 5 4 4 4 4 3 3 5 4 3 4 5 5 4 5 6 6 5 5 5 5 6 6 5 5 5 5 5 5 5 6 6 6 6 7
5 4 4 4 4 4 4 4 5 4 4 5 4 4 4 4 4 4 4 4 3 4 4 4 4 5 5 5 5 6 6 6 6 6 6 5 5 5 5 5 5 6 6 6
4 5 4 3 3 3 3 3 4 5 4 5 5 4 4 4 4 4 4 4 4 4 4 4 4 5 5 5 5 5 5 5 6 6 6 6 6 5 5 5 5 5 5 6

GFSNGP_con_lsi_015.txt.gz
Lid_Strength_Index
9 8 8 9 9 9 9 9 12 11 10 8 7 6 6 5 5 5 5 5 5 5 5 5 5 5 4 4 4 3 3 3 3 3 3 3 3 3 2 2 2 2 3 3
11 8 9 10 9 9 8 9 9 9 9 6 5 5 5 5 5 5 6 5 5 6 6 6 6 5 4 4 3 3 4 3 3 3 3 2 2 3 3 3 3 3 3 3
14 10 11 15 10 9 9 8 8 11 8 6 6 7 6 6 5 6 7 7 6 6 6 6 5 4 4 4 3 3 3 3 2 2 2 2 3 3 3 3 3 3 3 3
15 14 19 9 6 7 8 7 7 7 6 6 7 6 6 5 6 7 7 6 6 6 6 5 4 3 3 3 3 3 3 2 2 2 2 2 2 3 3 3 3 3 3 3
16 14 11 9 8 8 9 10 6 7 7 6 5 5 7 6 6 6 6 6 6 5 5 5 4 3 3 3 3 2 2 2 2 2 2 3 3 3 3 4 3 4 3 4
14 17 18 10 7 6 6 12 7 6 7 7 7 10 8 5 5 5 6 6 6 5 5 5 4 3 3 3 2 2 1 2 1 2 2 2 2 3 3 3 4 4 4 4
14 16 12 7 6 6 13 12 6 6 6 8 9 8 6 6 6 6 6 6 5 5 5 4 4 3 3 3 2 1 1 1 1 1 1 2 2 3 3 3 3 4 4 3
13 16 17 6 7 11 7 5 5 7 8 8 7 7 7 7 7 7 7 6 5 5 5 4 3 3 4 3 2 0 0 1 1 1 1 2 3 3 3 4 4 4 4 4
10 11 6 5 6 5 4 5 6 8 7 7 7 7 7 8 7 7 6 6 5 5 5 4 4 3 4 3 2 2 1 2 1 1 2 2 3 3 4 4 5 6 6 6
9 7 6 6 5 5 4 5 6 7 6 7 8 8 8 8 7 7 6 6 6 5 5 5 4 3 3 2 3 3 3 2 2 3 3 3 3 4 4 5 6 6 6 7
9 6 6 5 5 5 5 6 7 6 7 7 8 8 7 7 7 7 6 6 5 5 5 4 3 3 2 3 3 3 3 3 3 3 3 3 4 4 4 5 6 7 7 8
11 6 7 7 6 5 6 6 7 7 8 7 7 7 7 7 7 6 6 5 5 4 4 3 3 3 3 2 3 3 4 4 4 3 3 4 4 5 7 7 7 7 8 8
6 5 6 6 6 5 6 7 7 7 7 7 7 7 7 7 6 6 5 5 4 3 3 3 3 4 3 3 3 5 6 6 5 5 5 5 5 6 7 6 7 7 8 9
5 6 8 7 7 6 7 7 7 7 7 7 7 6 6 6 5 5 5 4 3 3 3 3 4 4 3 3 4 5 6 6 5 5 5 5 6 7 6 7 7 6 7 8
7 6 6 6 6 7 7 7 8 8 8 7 7 7 6 6 6 5 4 3 3 4 3 3 4 3 3 4 5 6 7 6 5 5 5 6 6 6 6 7 6 6 6 6
7 7 7 8 9 9 9 8 9 8 8 8 7 6 6 5 4 4 3 3 5 6 5 5 5 4 4 4 5 5 5 6 6 6 5 6 6 7 7 7 6 7 7 7
8 9 10 11 10 9 9 8 8 8 7 7 7 6 6 6 6 5 4 3 4 5 4 5 5 4 5 5 6 5 6 6 6 6 6 6 7 6 6 7 7 7 7 8
9 9 9 9 9 9 8 8 8 7 7 6 7 7 7 7 6 6 5 4 5 5 4 5 4 4 5 5 6 6 7 6 6 6 6 6 6 6 7 7 7 7 7 7
9 9 9 8 8 8 8 8 7 7 7 7 7 7 6 6 6 5 5 5 5 5 4 4 5 6 5 6 7 6 6 6 6 6 5 6 6 6 6 6 6 6 7 7
10 9 8 8 7 8 8 7 7 7 5 6 6 7 6 6 5 5 5 5 4 3 3 3 5 5 5 5 7 6 6 6 6 6 5 6 6 6 6 6 6 6 6 7
9 9 8 8 8 7 8 7 8 7 5 6 6 6 6 6 5 5 5 4 3 4 3 4 4 4 4 5 6 5 5 6 6 6 5 5 5 6 6 6 5 6 6 6
8 8 8 8 7 7 6 5 5 6 6 6 6 6 6 6 5 4 4 4 2 5 3 4 3 4 4 6 5 4 5 5 5 5 5 5 5 6 6 6 6 5 6 6
8 7 7 7 7 6 5 5 6 6 6 5 5 5 5 5 5 5 5 2 2 3 3 3 3 5 5 5 5 4 5 5 5 5 5 5 5 5 6 6 6 6 6 6
7 6 6 5 5 5 6 4 4 4 5 5 5 4 4 5 4 3 2 3 5 5 4 3 4 5 5 5 5 4 5 4 4 4 4 4 4 4 5 5 5 5 5 6
5 5 5 5 5 4 4 3 3 3 3 4 3 3 3 3 4 4 4 4 4 4 4 4 5 5 4 5 4 4 4 4 4 5 5 4 4 4 4 4 5 5 5 5
5 4 4 3 3 3 3 3 3 3 4 3 3 3 3 3 3 4 4 4 3 3 3 4 4 4 4 4 4 4 4 5 5 5 5 5 5 5 4 4 4 5 4 5
3 5 3 3 2 2 2 2 3 4 4 4 4 3 3 3 4 4 4 4 4 4 4 4 4 4 4 4 4 4 4 4 5 5 6 6 6 6 6 5 5 4 4 4

GFSNGP_con_lsi_018.txt.gz
Lid_Strength_Index
9 9 9 9 9 9 10 9 13 11 10 8 7 7 6 5 5 5 5 5 5 5 5 6 6 6 5 5 4 4 5 5 5 4 4 3 3 2 2 2 3 3 3 3
11 8 9 10 9 9 9 9 9 9 10 6 6 6 6 6 6 5 6 6 6 6 6 6 6 6 5 5 4 4 4 4 3 3 3 2 2 2 2 3 3 3 3 4
15 11 12 16 11 9 9 8 8 12 9 7 7 7 6 6 6 6 7 7 6 6 6 6 6 6 6 5 3 3 3 2 2 1 2 2 2 2 3 3 3 4 4 4
15 14 19 10 7 7 8 8 7 7 7 7 7 6 6 6 7 7 7 7 6 6 7 6 6 6 5 5 4 3 3 2 2 1 1 1 2 2 2 3 4 4 4 4
17 15 12 10 8 9 10 10 7 8 7 6 6 6 7 6 6 6 6 6 6 7 6 6 6 6 6 5 5 4 4 3 2 1 2 1 2 2 3 3 4 4 4 5
14 17 18 10 7 6 6 13 7 7 7 7 7 11 9 6 6 6 6 7 7 6 6 6 6 5 6 5 5 5 3 2 1 1 1 2 2 2 3 3 4 4 5 5
15 16 13 7 6 5 13 13 7 6 6 7 9 8 7 6 6 7 7 7 6 6 7 6 6 5 6 6 5 4 2 2 2 1 2 1 2 3 3 4 5 6 6 6
13 16 17 6 6 11 8 6 6 6 7 7 7 7 7 7 8 8 8 7 7 7 7 6 5 5 6 6 4 3 3 3 2 1 1 1 3 3 4 5 6 7 8 7
11 12 6 5 6 5 5 6 6 6 6 7 7 8 8 8 8 8 8 8 7 7 7 6 5 5 5 4 3 3 4 3 2 2 2 3 3 5 6 6 7 8 7 8
10 7 6 5 5 5 5 6 6 6 6 6 8 8 8 8 8 8 8 8 7 7 6 6 5 4 3 3 3 3 4 4 4 4 4 4 4 5 6 7 8 8 8 9
9 7 6 5 5 5 6 6 6 6 6 7 8 8 8 9 8 8 7 7 7 6 6 6 4 3 3 3 3 4 4 4 5 5 5 5 5 6 6 7 8 9 9 9
11 6 7 7 5 5 6 7 6 7 8 7 8 9 8 8 8 7 7 7 6 6 6 5 4 3 3 3 3 4 6 6 6 6 6 6 6 6 6 7 7 7 8 10
6 5 5 5 6 5 6 6 7 7 7 9 8 8 8 8 8 8 7 6 6 6 5 4 4 4 3 4 4 5 6 7 7 6 6 6 6 7 7 6 6 6 7 7
4 5 7 6 7 6 7 7 7 8 8 8 9 8 8 8 8 7 7 6 5 5 5 4 4 4 3 3 4 6 6 7 6 6 6 6 7 7 7 7 9 8 7 7
5 5 6 6 5 7 7 8 9 9 9 9 8 8 8 8 8 7 6 5 5 4 5 5 5 5 4 4 5 6 6 7 6 7 6 6 6 6 7 7 7 7 8 8
6 6 6 7 8 9 9 9 10 10 10 9 9 8 8 7 7 7 6 6 7 7 5 6 6 5 4 4 5 5 6 7 7 7 7 6 7 7 7 7 7 7 8 10
8 8 9 10 10 10 10 9 9 9 9 9 9 9 8 8 8 7 7 6 6 6 5 5 6 4 4 4 5 6 6 6 7 7 7 7 7 7 7 7 7 8 8 10
7 8 9 10 10 9 9 9 9 9 9 8 10 11 11 11 9 8 7 6 6 5 5 5 5 5 5 5 6 6 7 7 6 6 6 7 6 7 7 7 7 7 7 9
9 10 9 9 9 8 8 9 9 9 10 10 10 9 9 9 7 7 6 6 6 6 5 5 5 6 6 6 6 6 7 6 7 7 6 6 7 6 6 6 6 7 8 8
10 9 9 9 8 9 10 9 10 9 7 8 10 9 8 9 6 6 6 7 5 4 4 4 5 6 6 6 7 6 6 6 6 6 6 6 6 6 6 6 6 6 6 7
10 9 10 9 9 10 10 10 10 9 7 9 8 8 7 6 6 6 6 6 4 5 4 4 5 5 5 4 5 6 6 6 6 6 6 6 6 6 6 6 6 6 6 6
9 9 11 10 10 9 8 7 7 8 8 8 7 6 6 7 6 6 5 5 4 4 4 4 4 5 5 5 5 5 6 5 6 6 6 6 6 6 6 6 6 6 5 6
9 9 9 9 9 7 6 7 7 7 7 6 7 6 6 6 5 6 6 4 3 4 4 4 4 4 5 5 5 5 6 6 6 6 6 5 5 5 6 6 6 6 6 6
8 8 7 7 7 7 7 5 5 5 6 6 6 5 5 5 5 4 3 4 4 4 5 4 4 5 5 5 5 6 6 5 5 5 5 5 5 5 6 6 6 5 6 6
7 7 6 7 6 5 4 4 4 4 4 4 4 4 4 3 4 4 4 4 4 4 4 4 5 5 5 5 5 6 5 5 5 5 5 5 6 6 5 5 5 5 5 5
6 5 5 4 4 3 3 3 3 3 3 4 4 4 3 3 3 3 3 4 4 4 4 4 4 4 5 5 5 5 5 5 5 5 5 6 6 6 6 5 5 5 5 5
4 5 3 3 2 2 2 2 3 3 3 4 4 4 3 4 4 4 4 4 4 4 4 4 4 4 5 5 5 5 5 5 5 5 5 6 6 6 6 6 6 6 6 5

GFSNGP_con_lsi_021.txt.gz
Lid_Strength_Index
10 10 10 11 11 11 11 12 15 13 12 10 9 8 8 7 6 7 7 7 7 7 8 8 8 8 8 7 7 6 6 6 6 5 4 6 4 3 2 3 4 4 4 3
14 10 10 12 11 10 10 10 11 11 12 8 7 7 8 7 7 8 8 7 8 7 7 8 8 9 8 8 7 6 6 6 4 4 4 3 3 2 2 4 5 5 4 4
17 12 13 16 12 10 10 9 10 14 10 8 9 8 9 9 8 8 8 8 8 7 7 8 9 8 9 9 8 8 7 6 5 4 3 3 2 2 3 4 5 5 5 5
18 17 22 11 8 8 9 9 9 9 8 8 9 9 8 8 8 8 8 8 7 7 8 9 9 9 9 9 8 8 7 5 5 4 3 3 2 2 3 4 5 5 5 6
18 18 14 11 9 10 11 11 8 9 8 8 8 8 10 8 8 8 8 8 8 9 9 10 10 9 9 9 8 8 6 5 5 3 4 4 4 4 4 4 5 5 6 6
16 21 22 13 8 7 7 15 8 8 8 9 9 15 12 8 8 7 9 9 10 10 10 10 10 9 9 9 8 7 6 6 4 3 3 3 4 3 4 5 5 6 6 6
19 21 16 9 7 6 15 14 8 7 8 9 11 11 9 8 8 9 9 10 10 10 11 10 9 9 9 9 8 7 6 5 4 3 3 2 4 4 5 6 7 8 8 8
15 16 19 7 8 12 10 7 7 8 9 8 8 8 7 9 10 9 10 11 10 11 11 10 9 9 9 9 7 6 5 5 4 4 3 3 4 4 6 8 8 9 14 12
13 14 9 7 8 7 6 7 8 8 7 7 8 8 9 10 10 10 11 11 10 11 10 9 8 8 9 8 7 6 6 5 5 5 5 5 7 8 8 8 11 10 9 13
11 9 8 7 6 6 6 7 7 6 7 7 8 9 10 10 11 11 11 11 11 10 10 9 8 7 8 7 6 6 6 6 5 6 6 7 7 7 8 11 12 9 11 12
11 8 8 7 6 6 7 6 6 6 6 8 9 10 11 11 11 11 11 10 10 10 9 9 8 7 7 6 6 6 6 6 7 8 8 8 8 8 8 9 10 11 12 12
13 8 8 8 6 5 6 6 7 7 9 9 10 11 11 12 11 11 11 10 9 9 9 8 8 7 7 6 6 7 7 8 8 9 9 8 8 8 6 7 6 6 7 13
8 6 6 6 6 6 6 6 7 9 9 11 11 11 11 11 11 10 10 9 9 8 8 8 8 7 6 7 7 7 8 7 9 9 9 8 8 8 8 8 6 5 6 7
5 6 7 7 8 6 7 8 8 10 10 11 11 11 11 11 10 10 10 9 8 8 7 7 7 6 6 6 6 8 8 9 10 10 8 8 9 8 8 11 11 12 7 6
6 6 7 7 7 8 8 10 11 12 12 12 11 11 11 11 11 10 9 9 9 8 8 7 6 5 5 6 6 7 7 9 10 8 8 8 8 8 8 8 9 11 10 10
7 7 7 7 7 10 11 11 12 12 12 12 11 12 10 10 10 10 9 9 10 9 8 8 6 6 5 6 6 7 8 9 9 8 8 8 8 9 8 8 8 9 13 13
8 9 9 11 11 12 12 11 11 12 12 11 12 11 11 11 12 11 11 10 10 8 9 6 6 4 5 5 6 9 9 10 9 7 8 8 8 8 8 9 8 10 12 13
9 10 10 11 11 11 12 12 12 13 12 12 14 16 17 16 13 12 9 8 7 7 7 6 5 5 6 5 6 9 10 11 10 11 11 9 8 8 9 10 9 9 10 13
10 10 10 10 10 12 12 12 12 12 14 14 16 15 14 14 11 9 8 7 7 7 6 7 5 5 6 7 8 10 12 12 8 8 8 9 10 9 8 11 9 8 9 13
11 10 10 10 11 12 13 12 14 11 11 13 16 16 11 9 8 8 7 7 6 6 5 4 4 6 7 7 9 9 12 13 9 8 11 10 11 9 9 8 9 12 11 10
13 12 13 12 12 13 13 13 15 12 10 13 12 9 11 10 10 8 7 7 6 7 5 4 5 5 6 7 8 9 11 12 13 7 10 12 11 10 9 8 9 12 12 9
12 12 14 14 13 11 11 11 10 12 11 12 12 12 12 10 10 9 6 6 5 5 4 5 4 5 5 5 6 7 9 9 10 8 8 9 11 10 8 9 7 8 12 11
12 11 11 13 14 10 10 10 11 10 10 10 8 8 11 8 8 7 7 6 6 4 4 4 4 4 5 5 5 6 8 10 12 10 7 7 7 7 8 7 8 7 7 7
10 10 10 10 11 11 10 7 8 7 9 8 9 9 9 9 7 6 4 4 4 4 4 4 4 5 5 5 8 8 7 7 8 9 9 7 7 7 7 8 8 7 7 7
10 9 9 10 9 8 7 6 7 7 7 7 8 8 8 8 7 5 4 4 4 4 4 4 4 5 6 6 6 6 6 7 7 7 6 6 7 7 8 10 9 7 6 6
8 9 8 7 7 7 7 7 7 7 9 10 10 11 11 10 7 6 5 6 4 4 4 4 4 4 4 5 5 6 6 6 6 6 6 7 6 7 7 8 7 8 7 7
7 9 8 8 7 7 7 8 10 9 9 10 7 10 10 9 9 8 9 7 5 4 4 4 4 4 4 4 5 6 6 6 6 6 6 7 8 8 8 8 7 7 7 7

GFSNGP_con_lsi_024.txt.gz
Lid_Strength_Index
11 11 11 12 12 12 13 13 15 14 12 11 9 9 8 8 8 8 8 8 8 8 9 9 9 9 9 9 8 8 8 8 8 7 7 7 6 5 4 3 3 3 3 3
15 11 11 13 12 11 11 11 11 11 13 8 8 9 9 8 8 8 8 8 9 8 8 8 9 10 10 9 9 9 9 8 7 7 6 6 5 4 4 3 3 4 4 4
17 13 14 17 13 11 11 11 11 13 11 9 10 9 9 9 9 9 9 9 8 8 8 8 10 10 10 10 9 10 9 8 7 7 6 6 5 4 3 5 4 4 5 6
19 18 23 13 9 9 10 10 9 9 10 9 9 9 9 9 9 9 9 9 9 9 10 11 11 10 10 10 10 9 8 8 7 6 6 6 5 4 4 4 5 5 6 7
20 18 16 12 10 10 12 12 9 9 9 9 9 9 10 9 9 9 9 9 10 11 11 11 11 10 10 11 10 9 9 8 7 7 6 5 4 4 5 6 7 6 6 7
16 22 23 15 9 8 9 15 8 8 9 9 10 15 12 9 9 8 10 11 12 12 11 11 11 11 11 11 10 10 8 8 7 6 5 5 5 5 6 6 6 7 7 8
23 23 17 12 8 8 15 14 8 8 9 10 11 11 9 8 9 10 11 11 11 12 12 11 11 11 11 11 10 9 8 8 7 6 5 5 4 5 6 7 8 9 9 9
18 22 19 9 9 12 11 9 8 8 9 9 9 8 8 10 11 11 12 12 12 12 12 11 11 10 11 11 9 8 8 8 8 7 6 6 7 8 8 9 9 10 16 13
13 14 10 8 9 8 7 8 8 9 7 7 7 8 10 11 12 12 12 13 12 12 12 11 11 10 10 9 8 8 9 9 8 7 6 7 8 9 9 9 11 11 10 14
12 9 9 8 7 7 8 8 7 6 6 6 7 10 12 12 12 12 13 13 12 12 12 11 10 9 9 9 8 9 9 8 8 8 7 7 8 8 9 12 13 10 12 13
12 9 8 7 8 8 8 7 6 5 6 7 11 12 12 13 13 13 13 12 12 12 11 10 10 9 9 8 8 8 8 8 8 8 8 8 8 9 9 10 10 12 12 13
13 9 9 9 8 7 8 7 6 6 11 12 12 13 13 13 13 13 12 12 11 11 10 10 9 9 9 8 7 8 8 8 9 9 10 8 9 9 7 7 6 5 6 13
8 6 6 7 7 6 6 6 7 10 12 12 12 12 12 13 12 12 12 11 11 10 10 10 10 9 8 7 7 7 8 7 9 9 9 10 9 8 10 9 6 6 6 6
6 7 8 8 8 5 6 8 10 11 12 12 12 12 12 12 12 12 12 11 10 10 10 10 9 8 7 6 6 7 7 9 10 9 10 10 9 9 9 12 15 13 9 6
7 7 7 7 6 8 10 11 12 13 13 13 12 12 12 12 13 12 11 11 10 10 10 9 8 8 5 6 6 6 7 10 12 8 8 8 8 9 10 11 12 10 13 11
7 7 7 7 10 11 11 12 13 13 13 13 13 13 12 12 12 12 11 11 12 11 9 8 10 7 5 5 5 6 6 10 12 9 8 9 9 9 9 11 9 10 13 15
8 8 10 12 12 11 12 11 12 12 13 13 13 13 12 13 13 12 11 11 10 9 8 7 8 5 5 4 5 6 7 9 9 7 8 8 9 9 9 10 10 13 10 12
9 10 11 11 11 12 12 12 13 13 13 12 14 18 18 17 14 13 11 9 8 8 7 8 6 5 5 4 5 6 9 10 11 11 11 13 11 10 8 10 12 13 13 14
10 11 11 11 11 12 12 12 12 12 15 16 17 16 17 14 12 11 11 12 8 8 7 8 6 5 5 5 7 10 13 14 13 11 11 10 15 13 9 9 11 9 10 14
11 11 11 11 11 13 13 12 14 12 11 14 18 16 12 12 12 12 11 11 8 7 7 7 6 5 5 5 6 9 12 14 12 11 10 11 15 14 9 10 8 12 14 15
13 12 12 13 13 14 15 15 16 13 11 15 13 11 12 11 12 13 13 10 7 9 7 7 5 5 4 5 6 7 9 9 10 11 9 9 13 13 12 9 9 8 13 17
12 12 14 14 13 12 12 12 11 13 13 10 10 11 13 10 11 12 12 9 6 9 6 5 5 4 4 4 5 6 6 7 8 9 9 8 8 12 13 10 10 8 11 14
11 11 11 14 15 11 11 11 12 12 11 10 10 10 8 9 10 12 9 7 7 5 4 4 4 4 4 4 4 6 6 7 8 9 9 8 7 9 8 8 8 9 9 9
10 10 11 11 12 12 11 8 8 8 9 9 9 9 9 11 12 9 8 8 6 8 5 4 4 4 4 4 5 5 6 7 7 8 8 8 8 8 7 8 9 10 8 8
11 10 9 11 9 9 8 7 8 8 8 7 8 8 9 7 8 7 10 9 9 8 5 4 4 4 4 4 5 6 6 6 6 6 7 8 7 7 7 8 9 9 9 8
8 9 8 7 8 7 7 8 9 9 11 10 11 11 7 7 7 8 9 11 9 6 5 5 5 4 4 4 4 4 5 5 6 6 6 6 6 6 7 8 8 9 9 9
8 10 8 8 7 7 8 9 9 6 9 9 8 7 9 8 10 12 11 8 11 6 7 7 7 6 5 5 5 5 5 5 5 5 6 6 6 6 7 8 8 9 9 8

GFSNGP_con_lsi_027.txt.gz
Lid_Strength_Index
12 12 12 13 13 12 13 13 15 14 13 11 10 10 9 9 9 9 9 8 9 9 9 9 9 11 11 11 10 10 9 9 9 9 8 8 8 7 7 6 5 4 4 5
14 11 12 14 13 13 13 13 12 13 13 9 9 9 9 9 9 9 8 8 9 9 9 9 11 11 11 11 10 10 10 10 9 9 8 8 8 7 7 5 5 4 4 5
18 14 15 18 14 12 12 11 12 14 11 9 10 10 9 9 9 9 9 9 9 9 9 11 12 11 12 11 11 11 10 9 9 9 9 8 8 7 6 6 5 5 6 7
20 19 23 14 11 10 11 11 10 11 10 10 10 10 9 9 9 9 9 9 10 11 12 12 12 12 12 12 12 10 10 10 9 9 9 8 8 7 5 5 7 7 8 7
21 19 16 14 11 11 12 13 9 10 10 10 10 10 11 9 9 9 9 9 11 12 12 12 12 12 12 12 11 11 11 11 10 9 9 8 7 7 6 7 8 7 7 8
18 23 23 15 10 8 9 15 9 9 10 11 11 15 12 9 9 9 10 12 13 13 13 13 12 13 13 12 12 11 11 10 10 9 9 8 8 7 5 6 7 7 8 8
23 23 17 12 9 8 15 15 9 8 9 11 12 11 9 8 8 10 12 12 12 13 13 13 12 12 12 12 12 11 10 10 10 10 9 8 8 7 7 8 8 10 9 9
17 21 19 10 10 12 11 10 8 8 9 10 9 8 7 8 11 12 13 13 13 13 13 12 12 12 12 12 11 10 10 10 10 9 8 8 9 8 8 9 9 10 17 14
14 14 11 9 9 9 8 8 8 9 9 8 8 8 10 11 12 13 14 14 13 13 13 12 12 11 12 11 10 10 10 10 9 9 8 8 9 9 9 9 12 12 11 15
13 11 10 9 8 8 7 8 8 8 8 7 8 10 11 12 13 14 14 14 13 13 13 12 11 11 11 10 10 10 9 8 8 9 8 8 8 8 9 12 13 11 12 13
13 10 9 8 7 7 8 7 7 7 7 7 9 12 13 14 14 14 14 13 13 13 12 12 11 11 10 10 9 9 8 8 8 8 9 8 8 9 8 9 10 12 12 13
13 9 9 9 7 7 8 8 7 8 10 11 12 13 13 14 14 13 13 13 12 12 12 11 11 11 10 9 8 7 7 7 8 9 10 9 8 8 6 7 6 6 6 13
9 8 8 8 8 7 7 7 7 11 11 13 13 13 13 14 13 13 13 12 12 12 11 11 12 11 9 8 8 7 7 7 7 8 9 10 9 8 9 9 6 6 6 6
6 7 9 8 8 6 6 9 10 11 12 12 12 13 13 13 13 13 13 12 12 12 12 11 11 9 8 8 7 7 7 7 7 8 7 8 8 8 9 10 14 13 9 7
7 7 7 7 6 8 11 12 12 13 13 13 12 13 13 13 13 13 12 12 12 12 11 10 9 8 8 7 6 6 6 7 8 9 8 10 8 10 9 9 13 12 14 12
7 7 7 8 11 12 12 12 13 13 13 13 13 13 12 13 13 12 12 12 13 12 10 9 9 8 8 6 5 5 6 7 8 10 9 9 9 10 9 9 10 10 14 15
9 9 12 12 12 12 12 12 12 12 12 13 13 13 13 15 14 13 12 13 14 13 10 8 8 6 7 6 5 5 6 7 7 8 10 10 10 10 9 9 9 12 14 16
10 10 10 11 12 12 12 12 12 13 13 12 15 18 18 17 14 14 14 13 13 12 10 9 8 7 6 5 5 5 7 8 9 11 12 15 13 12 12 12 12 11 13 14
10 10 10 10 11 12 12 12 12 12 15 16 17 16 16 16 14 13 13 14 13 12 9 9 9 8 6 5 5 6 8 11 12 12 12 13 16 14 13 12 10 10 9 13
10 10 10 11 11 12 13 12 13 12 11 14 18 14 13 14 14 14 14 12 9 8 8 8 9 8 6 5 5 6 7 10 11 12 15 12 13 14 15 13 12 10 10 13
13 12 12 13 13 14 14 14 15 13 11 16 16 12 10 11 13 14 14 11 8 10 8 9 7 6 5 5 5 5 6 7 9 9 10 10 9 10 13 13 12 11 12 11
12 12 14 14 14 13 12 12 12 14 14 14 14 9 9 10 11 12 12 10 8 11 9 8 5 5 5 5 4 4 5 6 6 7 9 9 9 9 10 11 12 11 9 11
11 11 11 13 14 11 11 12 13 14 12 11 11 11 11 9 9 11 9 9 9 10 7 6 5 5 5 4 4 4 5 5 6 7 7 8 8 8 8 9 9 9 8 10
10 10 11 11 13 13 11 8 9 9 11 10 10 10 10 9 9 9 8 8 11 12 8 6 5 5 4 4 4 5 5 5 6 6 7 7 7 7 7 8 8 8 8 8
11 10 10 11 9 9 8 8 8 8 8 8 8 8 9 9 9 11 11 10 12 9 10 9 6 6 5 5 5 5 5 5 6 6 6 7 7 7 7 7 7 8 8 8
8 9 9 8 9 9 8 8 8 8 10 9 9 10 10 11 8 7 9 13 9 13 14 12 12 10 8 7 7 7 6 5 5 5 5 6 6 7 6 7 7 9 9 8
9 11 9 8 7 7 8 8 8 7 6 7 7 6 7 6 6 8 11 11 12 12 13 13 13 13 12 13 12 12 11 9 8 6 5 5 6 6 6 7 7 9 9 9

GFSNGP_con_lsi_030.txt.gz
Lid_Strength_Index
13 13 13 14 14 13 13 14 16 15 15 13 10 10 10 10 10 10 10 9 9 10 9 8 10 11 11 11 11 11 11 11 10 10 10 10 10 10 9 9 8 6 6 6
14 13 13 14 14 14 14 14 14 14 14 11 10 10 10 10 10 10 9 9 9 9 9 9 11 12 12 12 12 11 12 11 10 10 10 10 10 10 9 8 7 6 7 7
18 15 16 18 14 13 13 13 13 15 12 10 11 10 10 10 10 10 10 9 9 9 9 11 12 12 12 12 12 12 11 10 10 10 10 10 10 10 9 8 9 8 8 8
20 19 23 15 12 12 12 12 12 12 11 10 10 11 9 9 10 10 10 9 9 11 11 12 12 13 12 12 13 11 11 11 11 11 11 10 10 8 8 7 6 8 8 8
21 20 17 15 12 12 13 13 10 11 11 11 10 10 10 9 9 9 9 9 10 11 12 12 13 13 13 13 12 12 12 11 11 11 11 10 10 9 8 7 7 8 8 8
20 23 24 15 12 10 10 15 10 9 11 11 11 14 11 9 9 9 9 11 12 12 12 13 13 13 13 13 13 12 12 11 11 11 11 11 10 9 8 7 8 7 7 8
23 23 18 13 10 10 15 14 10 9 10 11 11 10 10 9 9 10 12 12 12 12 13 13 13 13 13 13 13 12 11 11 11 11 11 10 10 8 8 8 8 9 9 9
18 23 19 11 10 13 11 11 9 9 10 9 10 10 9 9 12 12 12 12 13 13 13 13 13 13 13 13 12 11 11 11 11 10 9 9 9 9 9 9 9 9 16 14
15 15 11 11 10 10 9 9 9 9 9 8 9 9 10 13 13 12 13 13 13 13 13 13 13 12 13 12 11 11 11 11 9 8 9 8 9 9 9 10 12 11 11 14
13 11 11 10 10 8 9 9 8 8 8 8 8 9 12 12 12 14 13 13 13 13 13 13 12 12 12 11 11 11 11 10 8 8 8 8 8 8 9 12 13 11 12 12
13 10 10 9 8 8 8 8 8 7 7 7 11 11 11 12 14 13 13 13 13 13 13 13 12 12 12 12 11 11 10 9 8 8 8 8 8 9 8 8 9 10 11 12
14 10 10 9 8 7 8 8 7 8 10 10 10 11 13 13 13 13 13 13 13 13 13 12 12 12 12 11 11 10 9 8 7 8 9 9 8 8 6 6 6 5 5 11
10 9 9 9 8 8 8 8 9 10 11 12 12 12 13 13 13 13 13 13 13 13 12 12 12 12 11 11 10 9 9 7 7 8 8 9 9 9 9 7 6 6 6 6
7 8 9 9 9 7 7 10 10 11 11 12 12 12 13 13 13 13 13 12 12 12 12 12 12 11 10 10 10 9 7 8 8 8 8 7 9 9 9 10 12 13 9 7
8 8 8 8 8 11 11 11 12 13 12 13 12 13 13 13 13 13 13 12 12 12 12 12 12 10 9 9 8 7 7 7 7 8 8 8 8 9 11 11 10 11 13 12
8 8 9 11 13 12 11 12 13 13 13 13 13 13 12 12 12 12 12 12 13 13 12 14 13 9 8 7 8 6 6 6 7 8 8 10 11 9 9 10 9 9 11 13
11 13 13 13 12 12 12 11 12 13 12 12 13 12 12 13 14 13 12 13 14 14 14 13 11 8 7 7 7 6 6 5 7 8 8 11 11 12 11 11 10 9 10 13
11 11 11 11 12 13 13 12 12 12 12 12 13 15 16 15 14 13 13 14 16 14 12 10 10 8 8 8 7 6 6 6 7 8 9 14 12 12 13 13 13 12 12 13
11 11 11 11 11 11 11 12 12 12 14 14 15 14 14 14 14 13 14 16 14 14 10 10 9 9 8 8 8 6 6 6 8 9 10 12 14 12 14 15 14 13 13 12
11 10 10 10 11 12 13 12 13 12 11 14 15 14 13 13 15 15 15 13 9 9 9 9 9 10 9 7 6 6 6 6 7 8 10 11 11 10 10 12 12 12 12 11
13 12 12 13 13 13 13 14 14 13 12 15 14 13 14 11 9 11 12 10 8 9 9 10 10 9 7 6 6 5 5 5 7 8 8 9 9 9 9 9 10 10 10 12
13 13 15 15 14 13 12 12 11 14 14 15 16 15 12 9 9 10 11 9 7 11 10 10 8 6 6 6 6 5 5 5 5 6 7 8 8 8 8 8 9 9 9 9
12 11 12 14 14 11 11 12 14 14 13 12 12 11 12 10 10 12 9 8 10 11 9 8 7 7 7 6 6 5 6 6 6 6 6 7 7 7 7 7 8 8 8 9
10 10 10 10 13 11 10 8 9 9 12 11 10 11 11 10 8 10 9 10 11 7 9 7 7 7 8 7 7 6 6 6 5 5 6 6 7 7 7 7 7 8 7 8
11 9 9 10 10 10 9 9 10 10 9 8 8 8 9 10 10 8 11 10 8 9 8 11 11 13 13 11 9 9 9 8 7 7 6 6 6 6 7 7 7 7 7 8
10 10 9 9 10 10 10 10 10 9 8 8 8 6 6 8 9 10 7 6 8 9 10 11 13 15 16 15 14 14 13 12 12 11 9 8 7 6 6 7 6 7 7 8
10 12 11 11 11 11 11 11 11 11 10 10 9 7 6 6 6 6 6 8 12 12 12 14 16 16 16 16 16 16 16 15 15 15 14 12 11 8 6 6 5 6 7 9

GFSNGP_con_lsi_033.txt.gz
Lid_Strength_Index
12 12 11 12 12 11 12 11 13 12 12 10 9 7 7 7 8 8 8 8 8 7 7 7 7 8 8 8 8 8 9 8 8 8 8 8 8 8 7 7 7 6 6 5
13 12 12 12 12 12 11 11 11 12 12 9 8 8 8 8 8 8 8 7 7 8 7 7 8 8 8 8 8 8 9 9 8 8 8 8 8 7 7 7 7 6 5 5
15 14 14 15 12 11 11 11 10 12 9 8 8 8 7 8 7 7 7 7 8 8 8 8 9 9 9 9 9 10 9 8 9 9 9 8 8 7 7 7 6 5 5 5
15 17 17 12 10 10 11 10 10 10 9 8 8 8 7 6 7 7 7 7 7 8 9 9 9 9 9 10 10 10 9 9 9 9 9 8 8 8 7 6 5 4 5 5
15 16 15 13 12 11 11 11 9 9 9 9 8 7 7 7 6 6 6 7 7 9 9 9 9 10 10 10 10 10 10 9 9 9 9 9 9 8 7 5 4 5 5 5
17 16 17 13 11 8 9 13 9 8 9 9 8 11 8 6 6 6 6 7 9 10 10 10 10 10 11 10 10 10 10 9 8 8 9 9 8 8 6 4 4 5 6 6
19 15 14 11 10 8 13 11 9 8 8 9 8 7 7 7 7 7 8 10 10 10 10 10 11 10 10 10 10 10 9 9 8 8 9 8 8 7 6 5 5 6 6 6
17 16 16 10 8 11 8 8 8 8 8 8 7 8 8 8 9 10 11 11 11 11 11 11 10 10 11 11 10 9 9 9 8 8 8 8 7 6 6 6 6 6 7 6
12 12 9 9 7 7 7 8 7 7 7 7 8 8 9 11 11 11 11 11 11 11 11 11 10 10 11 10 9 9 9 9 8 8 8 7 7 6 7 6 6 6 6 6
11 9 10 8 8 7 7 6 6 6 6 6 7 8 11 12 11 11 11 11 11 11 11 11 11 10 10 10 10 10 9 9 8 8 7 6 6 6 7 6 6 6 6 6
11 9 9 8 7 6 6 6 6 6 6 6 7 11 11 11 11 12 12 12 11 12 12 12 11 10 10 10 10 10 9 8 8 7 7 6 6 6 6 5 5 6 6 6
11 8 8 7 6 6 6 6 6 6 8 9 9 10 11 12 12 12 12 12 12 12 12 11 11 11 11 10 10 10 9 8 7 6 6 6 6 6 6 6 6 6 5 5
8 7 7 6 6 6 6 6 8 9 9 11 11 12 12 12 12 12 12 12 12 12 11 11 11 11 10 10 9 9 9 8 6 6 6 6 6 6 6 5 5 5 5 5
6 7 7 7 7 7 9 10 10 11 11 11 11 11 12 12 12 12 12 11 11 11 11 11 11 11 10 9 9 9 8 7 6 6 5 6 5 5 5 6 6 6 5 6
7 6 7 9 10 11 11 11 12 12 12 12 12 12 12 12 12 12 11 11 11 11 11 11 10 10 8 8 8 7 6 6 6 6 5 5 5 5 6 6 6 6 6 7
10 11 11 11 11 11 12 12 13 13 13 13 11 11 11 11 11 11 11 11 12 11 10 11 12 9 8 7 6 6 5 6 6 5 6 5 5 6 6 6 6 6 6 6
10 12 12 12 13 12 12 12 12 12 11 10 11 12 11 11 12 12 11 11 12 12 11 11 10 8 7 6 6 5 5 6 6 5 6 5 5 6 6 6 6 7 6 5
11 11 11 12 12 12 12 12 11 10 11 11 12 12 12 13 12 12 12 12 13 12 10 9 8 7 7 6 5 5 5 6 6 6 5 5 5 5 6 6 7 7 6 6
10 10 10 10 10 10 10 10 10 11 12 12 12 11 12 12 12 12 12 12 12 10 8 7 7 7 6 6 6 5 5 5 6 6 5 6 6 6 6 6 7 7 7 7
10 10 10 10 10 11 11 11 11 10 10 11 12 12 12 11 11 12 12 11 8 6 5 6 6 6 6 6 6 6 6 6 7 6 6 6 6 6 6 7 7 6 6 6
12 12 12 12 11 12 12 12 12 11 10 13 12 11 11 10 10 8 9 9 5 6 6 7 7 6 6 5 6 6 6 6 6 5 5 5 5 6 6 6 5 6 6 6
11 11 12 13 12 11 10 10 10 11 11 11 11 12 12 10 8 8 7 7 5 8 7 6 6 6 5 6 5 5 6 6 6 6 5 5 5 5 5 5 6 5 5 5
10 10 11 11 12 10 10 9 10 10 10 10 10 9 9 8 7 8 7 5 6 6 7 6 5 6 6 5 5 5 6 6 6 6 5 5 4 5 5 5 5 5 5 5
10 10 11 10 10 10 11 9 9 9 10 10 9 10 9 8 7 6 6 6 7 8 6 6 6 6 9 7 8 8 8 8 9 8 7 7 6 5 4 5 5 5 5 5
10 10 10 10 11 11 11 11 11 10 10 10 9 8 8 6 7 6 6 6 6 6 6 6 9 10 10 10 11 12 12 12 11 11 10 9 9 7 6 5 4 4 4 4
11 11 11 11 12 12 12 13 13 12 12 12 11 10 9 8 8 6 6 5 5 5 7 8 10 12 12 13 13 13 13 13 13 13 13 13 12 11 10 9 7 4 4 4
12 14 13 13 13 14 14 15 15 15 14 13 13 11 11 10 9 9 8 7 6 8 10 12 13 13 14 14 14 14 14 14 15 15 14 14 13 12 12 11 9 5 3 3

GFSNGP_con_lsi_036.txt.gz
Lid_Strength_Index
9 10 10 9 9 9 9 9 11 9 9 7 7 6 5 5 5 5 5 5 5 5 4 5 6 5 5 5 5 6 6 6 6 6 6 6 6 7 6 6 6 5 5 5
11 10 10 10 9 9 9 8 9 8 9 5 5 5 5 5 5 5 5 5 5 4 5 5 5 5 6 6 7 6 7 7 7 7 7 7 7 7 6 6 5 5 5 5
13 11 11 14 10 9 8 8 8 10 7 6 6 6 5 5 5 5 5 4 4 4 5 5 5 6 6 7 7 7 7 7 7 7 7 7 7 7 6 6 5 6 5 4
13 13 18 10 8 8 8 7 6 7 6 6 6 5 5 4 4 4 4 4 4 4 5 5 6 7 6 7 7 7 8 8 8 8 8 7 7 7 6 6 5 6 5 3
16 13 11 10 10 10 10 9 7 7 6 6 6 5 5 4 3 4 3 3 3 4 5 6 7 7 7 8 8 9 9 8 8 8 8 7 7 7 6 6 5 5 4 3
13 18 20 10 8 7 7 10 7 6 6 6 6 9 6 4 3 3 3 3 4 6 7 8 7 8 8 8 9 9 8 8 8 8 8 7 7 6 6 6 5 5 4 3
13 16 11 8 8 6 12 10 6 6 5 6 7 5 4 3 3 3 3 4 6 8 9 8 8 8 9 9 9 8 8 8 8 8 7 7 6 6 6 6 5 4 5 4
13 17 17 7 7 10 7 5 5 5 5 5 5 4 4 4 4 5 6 8 8 9 9 8 8 9 10 10 8 8 8 8 8 8 7 7 6 6 6 5 5 5 5 4
10 9 7 6 5 5 4 5 5 5 4 4 5 5 5 5 6 7 8 9 7 7 9 9 9 9 10 9 8 8 9 8 8 8 7 7 6 6 6 5 5 6 6 5
9 7 7 6 5 4 4 4 4 4 4 4 4 4 5 7 8 8 9 9 9 9 10 10 10 10 9 9 9 9 9 9 8 7 7 6 6 6 6 5 6 6 6 6
8 6 6 5 5 5 4 4 4 3 4 4 4 5 7 8 8 9 11 10 9 10 10 10 10 9 9 9 9 9 9 8 7 7 7 6 6 6 5 5 5 5 5 5
9 7 6 6 4 4 4 4 4 4 5 5 4 6 7 9 10 11 11 10 10 10 10 10 10 10 9 9 9 9 9 8 7 7 6 6 5 5 6 6 6 5 5 5
7 5 5 4 4 4 5 5 5 5 6 8 8 10 10 10 10 11 10 11 11 11 10 10 10 10 9 9 8 8 8 8 8 8 7 6 5 5 6 5 5 5 5 5
5 5 6 6 7 7 7 7 8 9 9 10 11 10 11 10 10 11 11 10 10 10 10 10 10 10 8 7 7 8 8 9 7 6 6 5 5 5 5 5 5 5 5 5
8 5 6 7 7 8 9 10 11 12 12 12 11 11 10 11 10 10 10 10 10 9 9 9 9 8 7 7 8 7 7 5 5 5 5 5 5 5 5 5 5 5 4 5
8 7 8 9 10 11 11 12 12 12 11 11 10 9 9 9 10 9 9 8 10 10 9 9 9 8 7 6 6 5 4 5 5 5 5 5 5 5 5 5 5 5 5 5
9 11 11 12 12 11 11 10 10 9 9 9 8 9 9 10 10 10 9 9 9 10 9 9 9 6 5 4 4 4 3 3 5 4 5 5 5 5 4 4 5 5 4 3
9 9 9 10 10 10 10 9 9 9 9 9 10 10 10 10 10 9 9 9 10 10 8 7 6 5 4 3 3 3 3 4 4 5 4 4 5 5 4 4 4 4 4 4
9 9 9 9 8 9 9 9 9 9 9 9 9 9 9 9 9 9 9 9 9 8 5 3 5 6 4 4 5 4 4 4 5 5 5 5 5 5 5 4 4 4 4 4
10 9 9 10 10 10 10 9 8 8 7 8 9 9 8 8 7 7 7 7 6 5 4 4 4 3 3 3 5 5 4 5 5 5 5 5 5 5 4 4 4 4 4 4
10 10 10 10 10 9 9 9 9 9 8 9 8 8 8 7 7 7 6 5 4 3 3 4 4 3 2 3 4 3 4 5 5 5 5 5 5 5 5 4 4 4 4 4
9 9 10 9 9 8 8 8 8 9 9 9 8 8 8 7 7 7 6 6 5 5 5 4 4 4 3 5 4 4 4 5 5 4 5 5 5 5 4 4 4 4 4 4
8 8 9 9 9 9 8 9 9 9 10 9 9 9 9 8 7 8 9 6 5 6 5 5 5 5 5 5 4 5 5 5 6 6 6 6 6 5 5 4 4 3 4 3
8 9 10 10 10 10 10 10 10 9 9 9 9 9 9 9 8 7 6 6 6 5 5 5 5 5 6 5 5 6 7 7 7 8 8 8 8 8 7 6 5 4 4 3
10 10 10 10 10 10 11 11 10 10 11 11 10 10 10 9 9 8 7 7 7 7 5 5 6 8 7 7 8 8 8 8 9 10 10 10 9 9 9 8 8 7 6 4
11 11 10 11 11 11 12 12 12 11 12 12 11 11 11 10 9 9 8 8 8 9 9 9 10 10 9 10 10 10 10 10 10 11 11 10 10 10 10 10 9 8 7 6
12 12 11 11 12 12 13 14 13 14 13 13 14 12 12 11 10 10 11 11 11 11 11 11 12 13 12 12 12 11 11 11 12 12 12 12 12 12 11 11 10 9 8 8

GFSNGP_con_lsi_039.txt.gz
Lid_Strength_Index
8 8 8 8 8 8 9 9 11 9 9 7 6 6 5 4 4 4 4 4 4 3 3 2 3 4 5 4 5 5 5 5 5 5 5 6 6 6 6 6 6 6 6 6
11 8 9 10 8 8 8 8 8 8 8 5 5 4 5 4 4 4 4 4 3 3 3 3 4 5 4 5 5 5 6 6 6 6 6 6 6 6 6 7 6 6 6 6
13 10 10 13 10 8 8 7 7 10 7 5 6 5 5 5 4 4 4 4 3 3 3 2 3 4 5 5 6 6 6 6 7 7 7 7 7 7 7 7 6 6 6 6
13 13 18 9 7 7 8 7 6 6 6 5 5 4 4 4 4 4 4 3 3 2 2 2 3 4 5 5 6 6 7 7 7 7 7 7 7 7 7 6 6 6 6 6
15 12 10 9 8 9 9 9 6 7 6 5 5 5 5 3 3 3 3 3 2 2 2 3 4 6 6 6 7 7 8 8 8 7 7 7 8 8 7 7 6 6 5 6
12 17 19 9 7 6 6 10 6 6 6 6 5 8 6 4 3 3 2 2 2 2 2 4 5 6 6 7 7 8 9 8 8 7 8 8 8 7 7 6 6 6 6 5
13 15 12 7 6 5 11 10 5 5 5 5 6 5 4 3 3 2 2 2 2 3 5 5 6 6 7 8 9 9 8 8 8 8 8 8 8 7 6 6 6 6 6 5
13 16 17 6 6 9 7 5 4 4 4 5 4 4 4 3 3 3 3 3 5 6 6 7 6 7 9 9 8 8 8 8 8 8 8 8 8 7 6 6 6 6 6 5
10 9 5 5 6 4 4 4 4 4 4 4 4 4 4 4 3 4 4 6 6 7 7 8 9 9 10 9 8 8 9 9 8 8 7 7 7 6 6 6 6 6 6 5
8 6 6 5 4 4 3 4 3 3 3 3 4 4 4 4 5 6 6 7 7 8 9 10 9 9 9 9 8 9 9 9 8 7 7 6 6 6 6 6 6 6 6 6
8 6 5 5 4 4 4 3 3 3 3 4 4 4 4 5 6 7 9 9 9 10 10 10 9 9 9 9 9 9 8 8 8 7 7 6 5 5 5 4 5 5 5 5
9 6 6 6 4 4 4 4 4 4 4 4 4 5 5 8 9 10 10 10 10 10 10 9 9 9 9 8 8 8 9 8 8 7 7 6 5 5 5 6 6 5 5 5
7 5 5 4 5 5 6 6 6 6 6 7 8 8 9 11 11 11 10 10 10 10 9 9 9 9 8 8 8 9 9 8 7 8 6 6 6 5 6 4 5 5 5 5
4 4 6 6 7 6 7 8 8 8 9 10 10 10 11 11 11 10 10 9 8 9 9 8 8 8 7 7 7 7 7 8 6 4 4 5 5 4 5 4 5 4 5 4
6 5 6 6 7 8 8 8 10 11 11 11 10 10 9 10 9 9 8 8 8 8 8 7 8 8 7 6 7 6 5 4 3 3 3 4 4 4 5 5 5 4 4 4
7 8 8 9 8 8 9 9 10 11 10 9 9 9 8 8 8 8 7 7 8 8 7 8 8 7 6 5 4 3 3 5 5 3 3 4 4 4 4 4 4 4 4 4
9 10 9 10 10 9 9 9 9 9 8 8 9 9 8 8 8 7 7 6 7 8 8 7 7 4 3 3 3 3 2 2 4 3 3 3 4 4 4 4 4 4 4 3
7 8 8 9 9 10 9 9 9 9 9 9 10 10 10 9 8 7 7 6 7 7 5 4 3 3 3 2 2 2 2 2 2 3 3 3 4 4 3 4 4 4 4 3
8 9 9 9 9 9 10 10 10 9 9 9 9 10 9 8 7 7 6 7 7 6 4 3 5 4 3 3 4 2 3 3 4 4 4 4 4 4 5 4 4 4 4 3
9 9 10 10 10 10 10 9 7 7 7 9 9 9 8 7 7 7 6 7 5 4 4 5 6 5 4 3 4 2 3 4 4 4 4 4 4 4 4 4 4 4 4 4
10 10 10 10 10 9 9 9 9 9 9 9 10 9 9 8 7 7 7 8 6 5 6 6 6 5 4 4 3 3 4 4 4 4 4 4 4 4 4 4 5 4 4 4
10 10 10 8 8 8 9 9 9 10 10 10 9 9 9 9 8 8 7 7 6 7 6 6 5 5 5 5 4 5 4 4 4 4 4 5 5 5 5 5 5 4 4 3
9 8 9 10 9 9 9 10 10 10 11 10 10 10 10 9 9 9 9 8 8 7 7 7 6 6 6 5 5 5 5 4 5 5 6 6 7 7 7 7 6 5 5 4
8 8 9 9 10 10 11 10 10 10 9 9 9 10 10 10 9 9 8 9 9 9 8 8 8 9 8 6 6 6 6 6 6 7 7 8 7 8 8 8 8 8 7 6
9 10 10 10 10 10 11 11 10 10 10 10 10 10 10 9 10 9 9 9 10 10 10 10 11 11 9 9 9 9 8 9 9 9 9 9 9 9 9 9 9 9 7 7
10 10 10 11 11 11 11 11 11 10 11 11 11 11 10 10 10 10 10 11 11 11 11 11 11 12 11 11 11 11 10 10 11 11 11 10 10 10 10 10 10 10 9 8
11 11 10 10 11 11 11 12 12 12 12 12 13 11 11 11 11 11 11 11 11 12 12 12 12 12 13 13 12 13 13 12 13 13 12 12 12 12 12 12 11 11 10 9

GFSNGP_con_lsi_042.txt.gz
Lid_Strength_Index
8 8 8 9 9 9 9 9 13 11 10 8 6 6 5 4 4 4 4 4 4 4 3 3 3 3 3 4 5 4 5 6 6 6 5 6 6 6 6 7 7 7 7 7
11 9 8 10 8 8 8 8 9 9 9 6 5 5 5 5 5 5 4 4 4 3 3 3 3 3 3 4 4 5 5 6 6 6 6 6 7 7 7 7 7 7 7 7
14 10 10 14 10 9 8 7 8 10 8 6 6 6 5 4 4 4 4 4 4 3 3 3 3 3 4 4 4 5 6 6 6 6 6 7 7 7 8 8 7 8 8 8
15 13 18 9 6 7 8 8 7 7 7 6 6 5 4 4 4 4 3 3 3 3 3 2 3 3 3 4 5 6 6 7 6 7 8 7 8 8 7 7 7 8 8 8
17 15 11 9 8 8 9 9 7 7 7 6 5 5 5 4 3 4 3 3 3 2 2 2 3 3 5 5 6 7 7 7 8 8 8 8 8 8 8 8 8 8 7 7
14 17 19 10 7 6 6 12 6 6 6 6 5 10 7 4 3 3 2 2 3 2 2 3 5 5 6 7 7 8 8 8 8 8 8 8 8 8 8 7 7 8 8 8
14 16 13 7 7 6 12 12 6 5 5 6 7 6 4 3 3 3 3 3 2 3 4 5 5 6 7 8 9 8 8 8 8 8 8 8 8 8 8 8 8 9 9 7
14 17 18 6 6 10 8 5 5 5 5 5 5 4 4 4 3 3 3 4 5 6 7 7 8 8 9 9 9 8 8 8 8 8 9 9 9 8 8 8 9 8 8 8
11 12 6 5 5 4 4 5 5 5 4 4 5 4 4 4 4 4 6 6 6 7 9 9 9 9 10 9 8 8 8 9 9 9 8 8 8 8 8 8 8 8 8 8
9 6 6 5 4 4 4 5 4 4 4 4 5 4 4 4 6 7 8 8 8 9 10 10 9 9 9 9 9 9 9 9 8 8 8 8 8 8 8 8 8 7 7 7
8 6 6 5 5 5 4 4 4 4 4 5 4 5 6 7 8 9 9 9 9 10 10 10 9 9 8 8 8 9 9 8 8 8 8 8 7 6 7 6 6 6 6 6
11 7 7 7 5 4 5 6 5 5 7 7 7 8 9 9 10 10 11 10 10 10 10 9 9 9 8 7 8 8 8 8 9 9 8 7 6 6 5 5 5 5 5 6
7 5 5 5 6 6 7 7 7 8 8 9 9 9 10 11 11 11 11 10 10 9 9 8 8 8 7 7 7 8 9 9 8 8 7 7 7 6 7 5 4 4 5 4
4 4 7 6 8 7 8 9 9 9 9 9 9 9 10 11 10 10 10 9 8 8 8 7 7 7 6 6 7 8 7 7 6 6 5 5 5 6 5 6 6 6 4 5
6 5 6 7 7 8 8 9 9 10 9 10 9 10 9 10 10 9 9 8 7 7 7 7 7 7 5 5 5 6 5 5 5 5 5 6 5 5 5 5 5 6 5 6
7 7 7 8 9 9 9 9 10 10 10 9 10 10 10 10 10 9 7 7 8 8 8 9 8 7 5 4 4 4 4 5 6 5 5 5 5 4 5 5 5 5 5 5
9 10 9 10 9 9 9 9 10 10 10 11 11 11 11 10 9 8 8 8 9 9 8 8 7 4 4 3 3 4 4 4 5 5 5 4 4 4 4 4 5 5 5 5
7 8 8 8 9 9 10 10 10 11 12 12 13 12 11 11 10 9 9 9 9 8 7 5 6 6 5 4 4 5 5 5 5 5 4 4 4 4 5 5 6 6 5 5
8 8 8 9 9 10 10 11 11 11 12 12 11 11 10 10 10 10 9 10 10 8 6 6 7 7 7 6 6 6 6 6 5 5 4 5 5 5 5 5 6 5 5 5
9 9 10 10 10 11 12 11 11 10 10 11 13 13 12 12 12 11 10 9 7 8 8 8 8 8 7 6 7 7 7 7 6 6 5 5 5 5 5 6 6 5 5 4
10 11 11 12 12 12 13 12 13 11 11 13 13 13 13 12 11 11 10 10 8 9 9 9 9 8 8 9 9 7 7 7 6 6 5 5 5 6 6 6 5 5 5 5
11 11 12 12 11 12 12 11 11 12 13 14 15 15 14 12 12 10 11 10 9 10 10 10 9 12 12 12 8 7 7 7 6 6 5 5 6 7 7 7 8 8 7 7
11 11 12 12 12 10 11 11 12 12 14 14 14 13 12 11 10 11 12 10 10 11 11 10 12 14 14 10 10 10 9 9 9 8 8 8 8 8 8 8 8 9 9 9
10 11 11 10 10 11 11 12 11 11 13 12 13 13 12 11 11 10 10 11 12 13 12 11 12 14 13 12 12 12 11 11 11 11 10 10 9 9 9 9 10 10 10 9
10 10 10 10 11 11 12 12 12 11 12 12 11 11 11 10 11 11 11 11 12 12 12 11 12 14 13 13 13 13 13 12 13 13 13 12 12 12 12 12 12 12 11 11
9 10 11 12 12 12 12 12 13 12 12 12 11 12 11 10 11 11 11 12 12 12 12 12 12 12 13 13 13 14 14 14 14 15 14 14 14 14 14 14 14 13 13 12
12 11 11 11 12 12 13 13 13 13 12 12 13 12 11 11 12 12 13 12 12 12 12 12 12 12 13 13 14 14 14 15 16 16 16 16 15 16 15 14 14 13 13 12

GFSNGP_con_lsi_045.txt.gz
Lid_Strength_Index
10 9 9 10 10 10 11 11 14 12 11 9 9 9 9 8 7 7 6 6 6 6 5 5 4 4 5 6 6 6 6 6 6 5 6 6 7 7 7 8 8 8 8 8
13 10 10 12 10 10 11 10 11 11 11 8 9 8 8 8 7 7 7 6 5 5 5 5 5 6 6 6 6 5 6 6 7 6 7 7 7 7 8 8 8 8 8 8
17 12 12 16 12 11 10 9 10 13 10 9 9 8 8 8 7 6 6 5 5 5 5 5 5 5 6 6 5 6 7 7 7 6 7 8 8 8 9 9 9 9 9 8
17 16 21 11 8 9 10 10 10 10 9 9 9 8 7 7 7 6 6 5 5 5 5 6 5 6 6 7 7 7 8 7 8 8 8 8 8 8 9 8 8 9 9 8
18 17 13 10 9 9 10 11 8 9 9 8 8 7 7 5 5 6 6 5 5 5 6 7 7 7 7 7 8 8 8 9 9 9 9 9 9 9 8 9 8 9 8 8
16 18 20 12 9 7 8 14 8 8 8 7 7 12 9 6 5 5 5 5 6 7 8 8 9 9 9 9 9 10 9 9 9 8 8 9 9 9 8 8 9 8 9 8
18 18 14 9 8 7 15 13 7 7 7 7 9 8 6 5 5 6 7 9 9 9 10 9 9 9 10 10 10 9 9 8 8 8 8 8 9 9 9 9 9 10 10 9
15 17 18 8 8 11 9 7 7 7 7 7 6 6 5 6 7 8 9 10 10 10 11 10 10 10 10 11 9 9 9 9 8 8 8 8 8 8 8 9 10 9 10 9
13 13 8 7 7 6 6 7 6 6 6 5 6 6 6 9 9 10 10 10 9 10 10 10 10 10 11 10 9 9 9 9 9 8 7 7 9 9 9 9 9 8 8 9
11 9 8 7 6 5 5 6 6 6 7 6 7 8 9 10 10 11 11 11 10 10 10 11 10 10 10 9 9 9 9 9 9 8 8 8 8 8 8 10 10 9 9 8
10 8 8 7 6 6 6 6 8 8 8 9 9 10 10 11 11 10 10 10 10 11 11 11 10 10 10 9 8 9 9 8 8 8 8 8 7 7 8 8 9 9 9 8
13 8 8 9 8 7 8 8 8 9 10 9 10 11 11 11 10 10 11 11 11 11 11 11 10 10 9 8 8 9 9 9 10 10 9 8 8 8 6 6 5 5 4 7
8 7 8 9 9 9 9 9 9 10 10 10 11 11 11 12 12 12 12 12 11 11 11 11 10 10 9 8 9 9 10 9 9 8 8 8 8 8 8 7 5 4 4 4
6 8 10 9 10 9 9 9 9 10 10 11 11 11 11 12 12 12 11 11 11 11 11 10 9 9 8 8 8 9 9 8 8 8 8 7 7 7 7 8 8 7 6 4
8 7 9 9 9 10 9 10 11 11 11 11 11 11 11 12 12 12 11 11 11 10 10 9 10 10 8 8 8 8 8 8 7 7 7 7 6 6 6 7 8 7 6 7
9 9 9 10 10 10 10 11 12 12 11 11 12 13 12 12 12 12 11 11 12 12 11 12 12 9 8 6 6 6 5 6 6 6 6 6 6 6 6 6 5 5 6 7
11 12 11 10 10 10 10 11 11 11 12 13 15 14 14 14 13 13 12 11 11 12 11 10 10 8 8 7 7 7 7 7 8 7 7 6 7 6 5 5 5 5 7 7
9 9 9 10 10 11 11 11 12 13 14 14 14 14 14 15 15 13 13 13 15 14 11 10 11 10 9 8 8 9 9 9 9 9 8 8 7 6 5 7 9 9 8 7
8 9 9 10 10 11 11 12 14 14 15 14 17 17 16 17 13 12 13 16 15 14 12 11 11 10 10 10 11 12 11 11 10 9 9 8 7 6 6 7 7 9 9 8
11 11 11 11 12 12 13 13 14 15 15 16 19 21 17 18 19 18 16 15 13 13 12 12 11 12 13 13 13 12 11 10 10 8 8 7 7 8 6 6 8 8 7 7
12 12 13 14 14 14 15 16 16 15 15 20 19 20 21 18 18 19 15 14 13 13 13 13 13 14 14 14 12 12 12 12 11 11 10 10 9 9 8 8 9 11 11 11
11 13 13 14 15 15 15 15 15 17 18 20 22 22 21 15 17 16 18 14 13 17 14 12 13 17 15 15 13 14 14 13 14 13 12 11 11 10 10 10 11 11 11 12
12 13 13 14 15 16 15 15 18 17 19 20 21 19 17 15 14 17 15 13 13 15 13 13 18 18 18 16 15 15 15 14 15 15 14 13 13 12 12 13 13 13 12 12
13 13 14 14 15 15 16 14 13 13 18 16 19 21 16 19 20 13 13 16 18 19 18 15 17 18 21 20 18 16 16 16 16 17 15 15 15 15 15 14 15 14 14 14
14 14 14 15 15 14 14 13 13 14 14 13 14 14 14 14 18 16 18 18 17 18 19 18 17 17 21 23 22 21 21 20 18 18 18 18 17 17 17 16 16 15 15 14
14 15 14 14 14 14 14 14 15 15 16 18 18 21 18 16 16 17 18 19 17 17 19 21 21 19 19 22 23 23 20 19 20 18 20 20 19 19 18 17 16 15 15 14
13 13 14 14 14 14 15 15 18 18 18 22 21 20 16 16 20 18 21 22 22 19 22 21 21 22 20 20 23 21 23 23 23 19 24 22 20 20 18 17 16 15 15 14

GFSNGP_con_lsi_048.txt.gz
Lid_Strength_Index
11 10 10 11 11 11 12 12 15 13 13 10 10 10 10 9 8 7 7 7 7 7 7 6 5 5 6 6 6 6 6 6 6 6 7 7 8 8 8 8 9 9 8 8
13 11 11 12 12 12 11 11 12 12 12 10 10 9 9 9 8 8 7 6 7 7 6 5 5 6 6 7 7 6 6 7 7 7 7 7 8 9 8 9 9 8 8 8
16 13 13 16 12 12 11 11 11 14 12 11 10 9 9 9 8 8 7 6 5 5 5 5 5 6 7 7 7 8 8 8 8 7 7 8 8 9 9 9 9 9 9 9
16 16 20 12 9 9 10 10 10 10 10 9 9 9 8 8 8 8 7 6 6 6 7 8 8 8 8 8 9 9 9 9 8 8 9 9 9 9 9 9 9 9 9 9
18 18 14 11 10 11 11 12 9 10 9 9 8 8 8 7 7 7 7 8 8 9 9 9 9 9 10 10 10 10 9 9 9 9 9 9 9 9 9 9 9 9 8 8
17 19 20 13 10 8 9 14 8 8 8 8 8 12 10 7 8 10 10 10 10 10 10 10 10 10 10 10 10 10 10 9 9 9 8 9 9 9 9 9 9 8 8 8
21 20 16 10 9 8 15 14 8 8 8 8 9 8 8 9 10 10 10 10 10 10 10 10 10 9 10 10 10 9 8 8 8 8 9 9 9 9 9 9 9 9 9 8
17 20 18 8 8 12 10 9 8 8 8 7 7 8 9 10 10 11 11 11 10 11 10 10 9 9 10 10 9 8 8 9 9 9 8 8 9 9 9 9 10 9 11 9
13 14 9 7 8 7 7 7 7 7 6 6 9 10 10 11 11 11 11 11 10 11 11 10 9 10 11 11 10 10 10 10 10 9 9 9 10 10 10 9 10 9 9 9
11 9 9 7 6 6 7 9 9 8 8 8 10 10 11 11 11 11 10 10 10 10 10 11 10 11 11 11 10 11 11 10 10 10 10 9 9 9 9 11 12 9 9 9
11 9 8 8 8 8 9 9 9 9 9 10 10 11 11 11 10 10 11 11 11 11 11 11 11 11 11 11 11 11 10 10 10 10 10 10 9 8 8 8 8 9 9 9
14 9 10 10 9 8 9 9 10 10 11 10 10 11 11 12 11 11 11 11 11 11 12 12 12 12 11 10 10 10 10 10 11 11 11 10 9 8 6 6 6 6 6 8
9 8 9 10 10 9 10 10 11 11 11 12 12 12 12 13 12 11 12 12 13 13 13 13 13 13 11 10 10 11 11 11 11 10 10 9 9 8 8 6 6 5 5 5
9 9 11 10 12 10 11 11 11 12 12 12 12 12 13 13 12 13 13 13 13 13 13 13 12 12 10 9 10 10 10 10 10 10 9 9 8 8 7 8 7 7 6 5
9 9 10 11 11 11 11 11 12 13 12 13 12 13 13 13 13 13 13 13 14 14 13 12 12 11 10 10 10 11 11 10 9 9 8 8 7 7 6 6 6 6 5 7
11 11 11 12 12 12 12 12 13 14 13 13 14 13 12 12 13 14 14 14 15 14 12 13 13 12 11 11 11 11 11 11 11 10 9 9 9 9 8 7 7 6 6 7
13 13 13 13 12 13 12 12 13 13 14 15 15 13 14 15 15 15 15 15 16 14 13 14 14 12 12 12 14 14 14 13 12 11 10 10 10 10 9 9 8 7 6 7
11 11 10 11 12 13 13 13 14 14 14 14 14 17 18 17 16 16 16 17 17 16 14 13 13 14 14 14 14 13 13 13 11 10 10 10 10 8 8 7 7 7 6 7
10 10 11 11 11 12 13 15 15 14 15 16 17 18 18 19 17 16 16 18 17 16 15 13 14 15 15 15 14 13 13 13 13 12 12 12 11 9 9 9 8 6 7 8
12 12 12 12 12 14 15 15 14 15 16 18 20 20 18 20 22 20 16 16 16 15 14 15 15 16 15 15 15 14 15 14 16 15 15 15 13 12 11 10 11 10 11 10
13 13 14 14 15 14 14 15 16 17 17 20 20 22 23 20 20 20 17 16 15 15 15 15 16 16 15 16 15 17 17 17 18 18 17 16 16 14 14 14 13 13 12 12
14 14 15 15 15 16 15 15 16 17 19 21 23 24 21 16 18 17 18 16 15 20 16 15 15 20 17 19 16 19 18 18 19 19 18 18 18 17 17 17 16 15 14 14
14 14 15 15 16 15 16 17 18 19 20 21 21 20 18 15 16 19 19 15 15 18 15 16 20 22 22 24 24 25 25 23 20 20 19 20 19 19 19 19 18 17 16 15
13 14 14 15 15 16 17 17 16 17 19 18 20 21 17 20 21 15 15 19 22 22 22 21 22 22 24 27 27 27 25 25 25 22 21 23 21 22 22 20 19 18 17 16
14 14 14 15 16 17 16 16 16 15 15 15 16 16 16 15 19 19 21 21 19 19 22 23 22 22 26 28 28 29 26 28 27 22 27 25 23 23 23 21 20 18 17 17
15 16 16 16 17 17 16 15 16 16 16 19 19 24 23 18 18 18 21 22 20 21 23 25 27 27 28 24 27 28 27 25 27 23 28 27 25 24 24 22 20 19 18 17
16 17 17 17 15 15 16 17 19 19 20 25 23 24 18 20 22 21 26 27 27 25 27 25 27 27 26 26 23 25 27 28 28 26 31 30 28 26 24 21 20 20 19 17

GFSNGP_con_lsi_051.txt.gz
Lid_Strength_Index
12 11 11 12 12 12 12 13 15 14 13 11 11 10 11 10 9 9 6 7 7 8 7 7 7 7 7 7 7 7 7 6 6 6 7 7 8 9 9 8 8 9 9 9
14 12 11 13 12 12 12 12 12 12 13 11 11 10 10 9 8 8 7 7 6 7 7 7 6 8 8 8 7 6 6 6 7 8 8 8 8 8 8 8 9 9 9 9
16 14 14 16 13 12 11 12 11 14 12 11 11 10 10 10 9 8 8 6 6 6 6 6 7 8 8 8 7 8 8 8 8 8 8 8 8 9 9 9 8 9 9 8
17 17 20 12 9 10 11 12 12 11 11 10 10 9 9 9 9 8 8 8 8 7 8 8 8 8 9 9 10 10 9 9 9 9 9 9 9 9 8 8 9 10 9 9
17 17 14 12 11 11 12 13 10 11 10 9 9 9 9 9 9 10 10 11 10 10 10 10 10 10 10 11 11 11 10 10 9 8 9 9 8 9 9 9 10 9 9 9
18 19 19 13 10 9 10 15 9 9 9 9 9 13 10 10 10 11 11 10 11 11 11 11 11 10 11 12 11 11 10 9 9 9 8 8 9 9 9 10 9 9 9 9
19 19 16 12 10 9 15 14 9 8 9 9 10 10 10 11 11 11 11 11 10 11 11 11 10 10 11 10 10 8 8 8 7 8 9 9 10 10 10 10 10 11 10 10
18 20 17 10 10 13 11 9 8 8 8 9 10 11 11 11 11 11 12 11 11 11 11 11 10 9 10 9 8 8 9 9 10 10 10 10 10 10 10 11 11 11 13 10
13 14 11 9 10 9 8 8 9 8 8 9 10 11 11 11 11 12 12 12 11 11 11 10 10 10 11 10 10 11 11 11 11 11 10 10 10 11 11 11 12 11 10 10
12 10 10 9 9 9 8 9 8 7 9 9 11 11 12 12 12 12 12 12 11 11 11 11 10 10 10 11 11 12 13 13 12 12 11 10 10 10 11 12 12 10 10 9
12 10 9 9 10 10 10 9 10 10 9 10 11 11 11 12 12 12 12 11 11 11 11 11 11 12 13 13 13 13 13 12 12 11 11 11 10 10 10 9 9 8 8 8
13 9 9 10 10 9 10 10 10 10 11 11 11 12 12 13 12 12 12 11 12 12 13 13 13 13 13 12 13 13 12 12 12 12 12 11 11 10 8 8 7 6 6 6
10 8 10 10 11 10 10 11 11 11 11 12 12 12 13 13 13 12 12 13 13 14 13 14 14 14 13 13 13 13 12 11 11 11 11 11 10 10 11 9 6 5 5 5
10 10 12 11 12 10 11 11 11 12 12 13 13 13 14 14 13 13 14 14 13 13 13 14 15 15 14 14 13 13 13 12 13 13 12 12 12 11 10 10 10 9 6 5
11 10 11 11 11 12 12 12 13 14 13 14 14 14 14 14 15 15 15 14 13 14 15 16 16 16 14 14 14 13 14 14 14 14 14 14 13 12 11 11 10 10 9 8
12 12 12 13 13 13 13 13 14 15 15 15 14 14 14 15 15 15 14 14 15 16 17 20 17 16 14 15 15 15 14 15 15 14 14 13 12 12 10 11 10 10 10 9
14 14 14 14 13 13 13 13 14 15 15 14 15 15 15 16 15 15 16 16 17 17 17 17 17 16 15 15 15 15 15 15 16 14 14 13 13 13 12 12 13 12 11 9
11 11 12 12 13 14 14 14 15 15 15 15 16 17 18 17 16 17 18 18 19 19 17 17 17 16 16 15 15 15 16 16 16 16 15 15 15 14 13 13 13 13 13 12
10 11 11 12 13 13 14 15 15 15 16 17 17 18 17 18 16 17 18 20 21 20 18 17 16 17 16 16 16 17 18 18 18 17 17 18 17 17 16 16 15 15 14 14
12 12 12 13 14 14 15 15 15 16 17 17 18 18 19 20 19 20 19 20 19 18 16 16 17 17 18 17 19 18 19 20 19 20 20 19 20 19 18 18 18 17 17 16
13 14 15 15 16 16 16 16 17 17 17 18 19 20 20 19 20 21 20 19 18 16 15 17 17 18 18 19 18 21 22 23 24 22 22 21 21 20 20 20 20 20 19 18
14 15 15 16 16 16 16 16 17 18 19 21 21 21 20 19 20 20 22 18 16 20 17 17 17 23 20 22 18 25 21 22 23 24 24 23 23 22 22 21 21 21 20 20
14 15 15 16 16 16 16 17 18 19 20 20 21 20 19 18 19 20 19 16 16 20 17 19 22 24 25 27 28 29 29 29 28 25 27 28 26 23 23 23 22 22 21 20
15 15 15 16 17 17 18 17 17 18 20 20 22 23 19 20 21 16 17 22 24 25 25 24 25 23 27 30 30 31 30 31 32 29 28 28 29 27 25 25 24 23 22 21
15 15 15 16 16 16 16 16 17 17 18 19 18 17 16 16 21 20 23 23 22 22 24 25 24 26 30 31 31 31 31 32 32 29 32 32 29 28 28 27 25 24 23 22
15 16 16 16 16 16 17 17 18 18 19 20 20 24 21 20 19 20 24 25 23 23 24 28 30 30 31 29 28 29 30 28 31 29 32 31 30 29 28 27 26 24 23 23
16 17 17 18 17 18 18 18 18 18 19 22 22 24 21 21 22 23 28 29 29 29 29 29 30 29 29 31 29 27 28 31 31 30 33 33 31 32 30 29 27 25 23 23

GFSNGP_con_lsi_054.txt.gz
Lid_Strength_Index
12 12 11 12 12 13 13 13 15 14 14 12 11 11 11 11 10 10 8 6 7 7 7 7 7 7 7 8 8 8 8 8 8 7 7 7 7 8 8 8 10 8 8 8
14 12 12 13 13 12 12 13 13 13 14 11 11 11 11 10 8 8 7 7 7 7 7 7 7 8 8 9 9 7 8 8 8 8 8 8 8 9 9 8 8 8 9 9
16 14 13 16 13 12 12 12 12 14 12 11 11 10 11 10 9 9 9 8 7 7 7 7 7 8 9 8 8 8 9 9 8 9 9 9 9 9 9 8 8 9 9 9
18 17 21 12 11 11 11 12 12 13 12 11 10 10 10 10 9 10 11 11 10 9 9 9 9 9 10 9 9 10 10 10 10 9 9 9 8 8 8 8 8 9 10 10
17 18 15 13 12 12 12 12 10 11 11 10 9 9 10 11 11 12 12 12 12 11 11 11 11 11 11 11 11 11 10 10 9 9 9 8 8 8 8 9 10 11 10 10
18 19 20 14 11 10 10 15 10 10 10 10 10 13 11 11 11 12 12 12 12 11 11 12 11 10 11 11 10 10 9 9 8 7 7 8 8 9 10 11 11 11 10 10
21 19 16 11 11 10 16 14 10 9 9 10 11 11 12 12 12 12 12 12 11 11 12 11 10 10 11 10 10 9 8 7 7 8 9 10 11 12 12 12 12 11 11 11
18 20 18 10 11 13 11 11 10 9 9 9 12 12 12 12 12 12 12 12 12 12 12 11 11 10 10 9 8 9 9 10 10 11 11 12 13 13 12 12 12 11 13 11
13 13 11 10 11 10 10 10 9 9 9 10 12 12 12 12 12 13 13 12 12 12 12 12 11 11 11 11 11 11 12 12 13 13 13 13 13 13 12 12 12 11 11 11
12 11 10 10 10 10 9 9 8 8 9 10 12 12 12 12 12 13 13 13 12 12 13 13 12 12 12 12 12 13 13 14 13 13 13 13 13 12 12 13 12 11 11 11
13 11 10 9 11 10 10 9 10 10 10 11 11 12 12 13 13 13 13 12 12 13 14 14 13 13 13 13 13 13 14 14 14 14 14 14 13 12 11 11 11 11 10 10
13 9 10 10 10 9 10 11 10 11 12 11 11 12 12 13 13 13 13 13 14 14 14 14 14 15 14 14 14 15 14 14 15 15 15 14 13 12 10 9 9 8 8 9
9 8 11 11 11 10 11 11 11 11 11 12 12 12 13 14 14 13 14 14 14 14 15 16 16 16 15 15 15 15 16 16 16 16 15 14 14 14 15 13 11 10 9 8
10 10 13 11 12 12 12 12 11 12 12 13 13 13 14 14 14 14 15 14 14 15 16 17 16 16 16 16 16 17 17 17 17 16 16 15 16 14 14 14 14 13 11 10
12 11 11 12 13 13 12 12 13 14 14 14 14 14 14 15 15 15 15 14 16 17 17 17 17 17 17 17 17 17 17 17 17 17 16 15 14 14 15 14 13 14 13 12
12 13 13 14 14 13 13 13 14 15 14 14 15 15 15 16 16 16 15 15 17 18 17 19 19 18 17 17 17 18 17 17 17 16 16 17 17 16 15 14 14 15 15 15
14 15 14 14 14 14 14 14 14 14 14 14 15 16 16 16 16 17 18 18 18 18 18 19 19 18 18 18 18 18 18 17 18 17 18 18 18 17 16 16 17 16 16 15
12 12 12 13 14 15 15 15 14 14 15 15 16 17 17 17 17 18 18 18 18 18 18 18 18 18 18 19 19 19 18 19 19 19 19 20 19 18 17 19 18 18 18 17
11 12 12 13 14 15 15 15 16 16 16 17 17 18 17 17 17 18 19 20 21 19 19 18 18 19 20 19 19 19 20 22 22 20 21 21 21 21 19 21 20 20 20 19
13 13 13 14 14 15 16 16 16 16 17 18 18 18 18 19 19 20 19 20 19 18 18 19 20 20 20 19 20 20 22 25 22 23 24 23 26 26 24 24 22 21 21 20
15 15 15 16 16 16 16 17 17 17 17 18 18 19 19 19 20 20 20 20 19 18 18 20 20 19 18 20 20 25 27 28 28 26 28 28 29 27 28 27 24 23 22 21
15 16 16 16 17 17 17 17 17 18 19 20 20 19 20 20 21 20 21 19 18 21 19 19 18 23 21 24 21 27 23 25 27 28 30 31 32 30 29 30 26 24 23 22
15 16 16 17 17 17 18 18 19 19 19 20 20 20 19 18 19 20 20 18 18 21 18 20 24 26 27 29 30 31 30 31 31 30 32 35 34 33 31 28 27 26 25 24
16 16 16 16 17 18 19 18 18 19 20 19 21 22 19 21 22 19 19 23 24 25 25 26 26 25 28 31 32 32 32 33 34 34 31 32 36 34 32 31 29 26 26 25
15 16 16 17 17 17 17 18 18 18 18 18 18 18 18 19 22 21 23 22 21 23 25 27 26 27 31 32 32 32 32 33 34 35 35 37 34 33 32 32 31 28 26 25
16 17 16 16 17 17 17 17 18 19 20 21 21 24 23 22 21 21 23 24 23 25 25 28 30 31 32 32 32 32 28 28 33 33 35 36 35 32 33 31 30 29 28 26
17 17 18 19 19 19 19 19 19 20 21 23 22 22 21 23 24 23 28 29 30 30 30 29 32 31 31 33 32 30 30 30 33 32 37 38 37 35 34 32 30 29 28 27

GFSNGP_con_lsi_057.txt.gz
Lid_Strength_Index
11 11 10 10 11 11 11 11 13 12 12 9 8 8 8 8 7 6 6 5 5 4 4 3 3 4 4 5 6 6 7 7 7 6 7 7 7 7 8 7 7 8 7 7
11 11 10 11 10 10 10 10 11 11 11 8 8 8 8 7 6 6 6 6 5 5 4 4 5 5 6 6 6 5 6 7 7 7 7 8 8 8 8 8 8 8 8 8
14 12 11 14 11 11 10 10 9 12 9 8 9 9 8 8 7 7 7 7 6 6 6 5 5 6 6 6 6 6 6 6 7 8 8 8 9 9 9 8 7 7 8 8
15 14 18 10 9 9 10 9 9 10 9 9 8 9 8 8 8 9 8 8 8 7 7 7 6 7 7 7 7 7 9 9 9 9 9 8 7 7 7 7 7 7 8 7
16 15 12 11 10 10 10 10 9 8 9 8 8 8 9 10 10 10 10 10 9 9 8 8 8 7 7 8 8 9 9 8 8 8 8 7 8 8 7 7 7 8 8 8
15 16 18 11 9 9 9 12 8 8 8 8 8 10 8 10 10 10 10 10 9 9 9 8 8 7 8 8 9 9 8 7 7 7 7 8 8 8 7 8 9 9 9 8
16 15 13 10 9 9 13 11 8 8 7 7 8 8 9 10 11 10 10 10 9 9 9 9 8 8 8 8 8 8 7 8 9 9 9 9 9 9 9 9 9 9 10 9
15 15 16 9 10 11 8 9 8 7 7 7 10 11 10 11 11 11 11 10 9 9 9 8 8 8 8 9 9 9 10 10 10 10 10 10 10 10 10 10 10 10 10 9
12 12 8 9 7 8 8 7 8 7 7 9 10 11 11 11 11 11 10 10 9 10 10 10 9 10 11 11 11 11 11 11 11 11 11 11 11 10 10 10 11 11 11 10
10 9 9 8 8 8 8 8 8 7 8 9 10 11 12 11 11 11 10 10 10 11 12 12 11 12 12 12 12 12 12 12 12 12 12 12 12 12 12 13 13 13 12 12
11 9 9 8 8 8 9 8 9 9 8 9 10 11 11 11 11 11 11 11 11 12 12 13 13 14 14 14 13 13 13 14 14 14 14 14 13 13 14 13 13 13 12 11
12 8 8 7 7 8 9 10 9 10 10 10 10 11 11 11 11 11 12 12 12 13 14 15 15 16 15 14 14 14 15 15 15 15 15 14 15 15 14 14 13 12 11 11
8 7 10 10 10 9 10 11 10 10 10 11 10 11 11 12 12 12 12 12 13 15 16 16 16 17 16 15 15 16 16 16 16 16 15 15 15 16 16 14 12 11 12 12
9 9 11 10 11 11 11 11 11 11 11 11 11 11 12 12 12 13 13 14 15 16 16 16 17 18 17 16 16 16 16 17 16 16 16 16 16 16 16 15 14 14 13 13
10 10 9 11 12 12 12 12 13 13 13 13 12 12 13 13 14 14 15 16 16 16 17 17 18 18 17 16 17 17 17 17 17 16 17 17 17 17 15 15 15 15 14 14
12 12 12 12 13 13 13 13 14 14 13 13 13 13 14 14 15 16 16 16 17 18 18 19 19 18 17 17 17 17 17 18 18 17 18 18 17 16 16 16 16 16 15 15
13 14 14 14 13 14 14 13 13 13 13 14 15 15 15 16 17 17 17 18 18 19 19 19 19 18 18 17 18 18 18 18 20 19 19 18 18 18 17 17 17 16 16 16
11 11 11 13 13 14 14 14 13 14 15 15 16 16 17 17 18 18 18 18 19 19 19 19 19 18 19 19 19 19 19 20 20 20 19 19 19 18 18 18 17 17 17 16
12 12 13 13 14 14 15 15 16 16 17 17 17 17 17 18 18 18 18 19 19 20 20 19 19 19 20 19 20 20 21 22 21 20 20 21 20 19 19 18 18 18 18 18
13 14 14 14 14 15 16 16 16 17 17 17 17 18 18 19 19 19 19 19 18 18 18 19 19 20 20 20 21 21 21 21 21 21 21 21 20 20 20 20 20 19 19 19
15 15 16 16 17 16 17 16 17 18 17 17 18 18 19 19 19 19 19 20 19 18 19 19 19 20 20 20 20 20 20 21 21 21 21 21 21 21 21 21 20 20 20 20
16 16 17 17 17 18 17 17 18 18 18 19 18 18 19 19 19 19 18 18 18 19 18 19 19 22 21 21 19 20 20 20 20 20 21 21 21 22 22 21 22 21 21 20
16 17 17 18 18 18 18 18 18 18 18 19 19 19 18 18 18 19 20 18 18 19 18 19 21 23 23 20 20 20 20 21 21 21 21 21 22 22 22 23 23 22 22 21
17 17 18 18 17 18 19 18 18 18 19 19 19 18 18 19 19 18 18 20 21 20 19 20 21 23 23 20 20 20 20 20 21 21 21 25 22 23 23 24 24 23 22 22
16 16 16 16 17 18 18 18 18 18 18 18 18 18 18 18 18 19 19 19 20 20 19 24 23 24 20 20 20 20 20 20 20 21 21 22 22 23 23 24 24 23 23 22
17 17 17 17 17 17 17 18 19 19 19 19 20 20 20 19 20 20 20 21 20 21 20 20 20 21 20 20 20 21 20 20 20 21 22 22 23 24 24 24 24 23 23 22
18 18 19 19 19 19 18 18 19 20 19 19 19 19 19 20 20 20 22 21 21 21 21 20 20 21 20 21 20 20 20 20 22 22 22 23 24 24 25 25 24 24 23 23

GFSNGP_con_lsi_060.txt.gz
Lid_Strength_Index
8 8 8 8 9 8 9 9 11 10 9 8 6 6 5 5 5 5 5 4 4 4 3 3 3 2 2 4 5 5 6 6 6 6 7 7 7 7 7 7 7 6 7 7
10 8 8 9 8 8 8 8 9 9 9 6 5 5 5 5 5 6 5 5 4 4 3 3 3 3 3 3 4 4 6 7 7 7 7 7 7 6 5 5 6 7 7 7
12 10 10 14 10 8 8 8 8 10 7 5 6 6 5 6 5 5 5 5 4 4 3 3 3 3 3 3 3 4 5 6 6 4 5 5 5 6 8 7 8 8 7 7
12 13 19 9 7 7 8 7 6 7 6 5 5 5 5 4 5 5 4 4 4 3 3 2 2 3 3 3 3 4 5 5 5 5 6 6 6 7 7 7 7 7 6 7
16 14 10 10 8 8 9 9 6 7 6 5 5 5 6 6 4 4 5 4 4 4 3 3 3 3 4 4 5 6 6 5 5 5 6 7 7 8 7 7 7 7 6 6
13 15 18 9 6 5 6 11 5 5 6 6 6 9 6 6 6 6 5 5 5 5 4 4 4 4 4 5 5 5 5 6 5 5 6 7 8 8 6 6 7 7 7 7
14 15 11 7 7 6 12 10 5 5 5 5 7 6 5 6 6 6 6 6 5 5 5 5 4 4 5 5 6 5 5 6 7 8 8 7 8 8 7 7 8 8 8 7
13 16 17 7 7 9 6 5 5 5 4 5 5 6 7 6 7 7 7 7 6 6 6 5 4 5 5 6 6 6 7 9 9 9 9 9 9 8 8 8 8 9 8 9
11 11 7 6 5 4 4 5 5 4 4 4 7 7 7 7 7 7 7 7 6 6 6 6 6 6 7 8 7 8 9 9 9 9 10 10 9 10 10 10 11 11 11 11
10 7 7 6 5 5 5 5 5 4 5 5 6 7 8 8 8 7 7 7 7 7 8 9 8 8 8 9 8 9 10 10 10 12 11 11 11 11 11 11 12 12 12 12
8 7 7 6 5 4 5 5 5 5 5 6 7 8 8 8 8 8 7 7 7 8 9 10 10 10 10 10 10 11 12 12 13 13 13 12 12 13 13 12 13 13 12 12
10 6 7 5 5 4 5 5 5 6 6 6 7 7 7 8 8 8 8 8 8 9 11 12 12 13 13 12 12 12 14 14 14 13 13 13 13 12 15 15 14 14 14 14
6 5 5 6 7 5 5 5 6 6 6 7 7 7 8 8 8 9 9 9 10 11 13 14 14 14 14 14 14 14 15 15 14 14 14 14 13 13 14 13 14 14 15 15
4 6 6 7 6 7 7 6 7 7 7 7 8 8 8 9 10 9 10 11 12 13 14 15 15 15 15 14 15 15 15 17 14 14 14 14 14 14 14 14 14 14 14 15
5 5 6 6 7 8 7 8 9 9 9 9 9 9 10 10 10 11 12 13 13 14 15 15 16 16 15 15 15 15 15 15 15 14 15 15 15 14 14 15 15 15 14 13
5 7 8 8 8 9 9 9 9 10 10 10 10 10 10 10 12 13 13 14 15 16 16 18 17 16 16 15 15 15 16 18 17 15 15 15 15 16 16 16 16 15 14 14
8 9 8 8 9 9 9 9 10 10 11 11 11 11 12 14 15 16 16 17 18 18 18 18 17 17 16 17 17 16 16 17 19 16 16 17 16 17 17 16 16 15 14 14
7 7 7 7 8 10 10 10 10 11 12 13 15 15 16 17 18 18 19 19 19 19 18 18 18 18 18 18 18 18 18 18 17 17 17 17 18 17 16 16 16 16 15 14
8 9 9 9 9 10 12 12 13 15 16 15 16 18 18 18 18 19 18 19 20 20 19 18 19 19 19 19 19 18 18 18 18 18 18 19 17 17 17 16 16 15 15 15
13 13 13 13 14 14 16 16 16 16 16 17 17 18 19 19 18 18 18 18 18 18 18 19 19 19 19 20 20 19 19 19 19 18 18 18 17 18 17 17 17 16 15 15
15 15 16 16 17 16 16 16 17 17 17 17 18 18 19 19 18 18 18 19 19 18 18 19 18 18 19 19 19 18 18 18 18 18 18 18 18 17 17 16 16 16 16 15
16 17 16 16 17 17 16 16 17 17 17 18 18 18 19 19 18 18 17 18 18 18 18 17 18 20 19 21 18 18 18 18 18 18 17 17 17 17 17 17 17 17 16 16
15 15 16 16 17 17 17 17 17 17 18 18 17 17 17 17 17 18 19 18 17 18 17 17 20 21 22 17 17 18 18 18 18 17 17 17 17 17 18 18 18 18 17 17
16 16 16 16 16 16 17 17 17 18 18 18 17 17 17 17 17 17 17 18 19 18 17 18 19 22 21 18 18 18 18 17 17 17 17 19 17 17 17 18 18 18 18 18
15 16 16 17 17 18 18 17 17 17 17 18 17 17 17 17 16 17 17 18 19 18 17 21 22 22 18 18 18 18 17 17 16 17 17 17 17 18 17 18 19 18 19 19
17 17 17 16 17 17 17 17 18 17 17 18 18 17 17 17 17 17 17 18 18 19 17 17 18 18 17 17 17 17 17 16 16 16 17 17 17 18 18 18 19 19 18 18
17 17 18 18 18 17 17 17 17 18 17 17 18 17 17 16 17 17 18 17 17 17 17 17 16 17 17 17 17 16 16 16 17 17 18 17 18 18 18 19 19 19 19 19

GFSNGP_con_lsi_063.txt.gz
Lid_Strength_Index
8 8 8 8 9 8 9 9 11 10 9 7 6 6 5 4 4 4 4 4 3 3 3 3 3 2 2 3 3 3 5 6 6 6 7 7 7 7 7 7 7 8 8 8
10 8 8 9 8 8 8 8 8 8 8 5 5 4 5 5 5 5 5 4 4 3 3 3 3 3 3 5 5 5 6 7 6 7 7 7 7 8 8 8 8 7 7 7
13 9 9 12 9 8 8 7 8 10 7 5 6 5 5 4 5 5 5 4 4 4 3 3 3 2 3 4 5 6 6 6 6 6 6 6 4 5 5 6 6 8 8 8
13 14 18 9 6 6 7 7 6 6 6 5 5 4 4 4 4 5 4 4 4 3 3 2 2 2 2 2 2 3 3 3 3 4 4 4 5 5 6 7 8 7 7 7
15 14 10 9 8 8 8 8 6 6 6 5 5 5 5 4 3 4 4 3 3 2 2 2 2 2 2 3 3 4 4 4 4 4 4 5 6 6 6 7 7 6 6 6
13 16 17 10 6 5 5 11 5 5 5 5 5 9 6 4 3 3 3 2 3 2 2 2 2 3 3 3 3 4 4 4 4 4 5 5 6 6 6 5 6 7 7 7
14 14 11 7 6 5 12 10 5 5 5 5 6 5 4 4 4 4 3 3 3 3 3 3 2 2 3 3 4 4 4 4 4 5 6 6 6 7 7 8 8 8 8 7
13 15 17 6 6 9 7 4 4 4 4 4 4 4 4 4 5 5 5 4 3 4 4 3 3 3 4 4 4 4 5 6 6 7 8 7 8 8 8 8 9 9 10 10
10 11 6 5 6 4 4 5 4 4 4 4 5 5 5 5 5 5 5 4 4 4 4 4 4 4 5 5 5 6 6 7 8 8 9 9 9 10 10 10 10 11 11 11
9 7 6 5 4 4 4 4 3 3 3 4 5 5 5 6 6 6 5 5 4 5 5 6 5 5 6 6 6 7 8 9 9 10 11 11 11 11 11 11 11 12 12 12
8 6 5 5 5 4 4 3 4 3 3 4 4 5 6 6 6 6 6 5 5 6 7 7 6 7 7 7 7 9 10 10 11 11 12 12 12 12 12 13 14 13 12 13
10 6 6 6 4 4 4 4 4 4 4 3 4 5 5 6 6 6 6 6 6 7 7 8 8 9 9 8 9 10 12 12 12 12 12 12 12 13 15 15 15 15 16 15
6 4 4 5 5 4 4 4 3 4 3 4 4 5 6 6 6 8 7 6 7 8 9 10 11 11 11 11 11 12 13 14 14 13 13 13 13 13 13 15 15 14 15 16
4 4 6 5 5 4 4 4 5 4 4 4 5 5 6 7 7 7 8 8 9 10 11 12 13 13 13 13 13 14 15 16 13 13 13 13 13 14 14 14 14 13 14 15
4 4 4 4 4 5 5 5 6 5 5 5 5 6 7 8 8 8 9 10 11 12 13 13 15 15 14 14 14 14 15 15 14 14 14 15 14 14 14 14 14 14 14 14
4 4 4 5 4 5 6 6 6 7 6 7 7 7 8 8 9 11 12 12 14 14 15 17 17 16 15 15 15 15 17 18 16 15 15 15 15 15 15 15 15 15 15 14
6 6 5 5 5 6 6 6 6 7 7 8 8 8 10 12 13 14 16 17 17 18 17 17 17 17 17 16 16 15 15 17 19 16 16 16 16 16 16 16 16 15 15 14
5 5 5 5 5 6 7 7 7 8 9 10 12 13 14 16 18 18 19 19 19 19 19 18 19 19 18 18 17 17 17 17 17 17 17 16 17 16 16 16 16 15 15 14
6 6 6 6 7 8 10 13 14 14 14 15 16 17 18 18 19 19 19 20 20 21 20 19 19 19 19 19 18 18 18 18 17 17 17 18 17 16 16 16 16 15 15 14
12 12 12 14 14 14 15 15 16 17 17 17 18 18 19 19 19 19 18 18 18 19 18 19 19 19 20 20 19 18 18 18 18 17 17 18 17 17 16 17 16 15 14 14
16 16 16 16 16 15 15 15 16 17 17 17 18 19 19 19 19 18 19 21 20 19 19 19 18 19 19 19 19 17 17 17 18 18 17 17 17 17 16 16 15 15 14 14
15 16 16 16 16 16 16 16 16 17 18 18 18 18 19 19 19 19 17 19 19 18 18 18 18 20 19 20 17 17 17 18 18 17 17 17 17 17 16 15 15 15 15 15
15 15 16 16 16 16 16 16 16 17 17 17 17 17 17 17 17 18 19 17 17 17 17 18 20 21 21 18 18 18 18 18 18 17 17 16 16 16 16 16 16 16 16 15
15 15 15 15 15 16 17 17 17 17 17 17 17 16 16 17 17 17 17 18 18 17 18 19 20 21 21 18 17 18 18 18 17 16 16 16 16 15 15 16 16 15 16 16
15 15 16 16 17 17 17 17 17 17 17 17 17 17 16 16 16 17 17 18 19 18 17 20 21 21 18 18 18 18 17 16 16 16 16 16 16 16 16 15 16 16 16 16
16 17 16 16 16 16 16 16 17 16 16 17 17 16 16 17 17 17 17 18 18 18 17 17 18 18 18 17 17 17 16 16 16 16 16 16 16 16 15 16 16 16 16 16
17 17 17 17 17 17 17 17 17 18 17 16 17 17 17 16 17 17 18 17 17 17 17 17 17 17 17 17 17 16 16 16 17 17 17 17 16 16 16 16 16 16 16 17

GFSNGP_con_lsi_066.txt.gz
Lid_Strength_Index
9 9 8 9 9 9 10 10 13 11 10 8 7 6 5 4 4 4 4 3 3 4 4 3 3 3 4 4 5 5 6 7 8 7 8 7 8 8 8 8 7 8 8 9
11 9 9 10 9 9 9 9 9 9 9 6 5 5 5 5 5 5 5 4 3 3 4 4 4 5 6 6 7 7 8 8 8 7 8 8 8 8 8 8 9 8 8 8
14 9 10 13 10 9 8 8 8 10 8 6 6 6 5 5 5 5 5 4 4 4 4 4 5 5 5 6 6 6 7 7 7 7 7 7 7 8 8 7 6 7 8 8
15 14 18 10 7 7 8 7 7 7 6 6 6 5 4 4 5 5 5 4 4 4 4 3 4 3 4 5 6 6 6 6 6 6 5 6 6 5 6 6 8 8 8 8
16 15 12 9 8 8 9 9 6 7 6 6 5 5 6 4 3 4 4 4 4 3 3 3 3 2 3 4 4 4 4 4 5 5 5 5 6 6 7 7 7 7 7 7
15 17 18 11 7 5 6 12 6 6 6 6 6 10 7 4 4 4 3 3 3 3 3 3 3 2 3 4 4 5 5 5 4 4 5 6 6 6 6 6 6 6 8 8
15 16 13 8 6 5 13 12 6 5 5 5 6 6 5 4 4 3 3 3 3 3 3 3 2 3 4 4 5 4 4 4 4 5 5 5 6 6 6 8 8 10 10 10
14 16 17 6 6 10 7 6 5 5 4 4 6 5 5 4 4 4 4 3 3 4 4 4 3 3 4 5 4 4 5 5 5 5 6 7 8 8 9 9 10 12 13 13
11 12 7 6 6 5 5 6 5 5 4 4 5 5 5 5 5 5 4 4 3 4 5 4 4 4 5 5 5 6 6 7 8 8 8 8 9 10 11 11 13 14 14 14
11 8 7 6 5 5 4 5 4 4 4 4 5 5 5 5 5 5 5 5 5 5 5 6 4 4 5 6 6 7 8 8 9 10 10 11 11 12 12 14 14 14 14 15
10 8 7 6 5 5 5 4 4 4 4 4 4 5 5 5 5 5 5 5 5 6 6 6 6 6 6 7 7 8 9 10 11 11 12 12 14 14 15 16 16 16 15 15
11 6 7 6 5 4 5 5 4 4 4 4 4 4 4 5 5 5 6 6 6 6 7 8 8 8 8 7 8 10 11 12 12 13 14 13 14 15 15 16 15 15 16 16
6 5 5 4 4 4 5 4 4 4 4 4 3 4 5 5 5 7 6 6 7 8 9 9 10 10 10 10 11 11 13 13 14 14 14 15 15 15 17 16 15 15 16 16
4 4 6 5 5 4 4 4 4 3 3 3 4 4 5 6 6 6 7 7 8 10 11 12 13 14 13 13 14 14 15 14 14 15 15 15 15 15 15 16 17 16 15 16
4 4 4 4 4 4 4 4 5 5 4 5 5 5 6 7 7 7 8 10 11 12 13 14 15 15 14 14 15 15 15 16 15 16 17 16 16 16 16 16 16 16 16 15
5 4 5 5 5 5 5 5 6 5 5 6 6 6 7 8 10 12 12 13 14 16 17 18 17 16 15 16 17 18 18 17 16 16 16 16 16 17 16 16 16 16 16 16
6 7 6 6 5 5 6 5 5 6 6 6 8 10 13 16 16 17 17 17 18 18 18 18 18 18 17 17 17 17 17 19 19 17 17 17 17 18 17 17 17 17 17 18
5 5 5 5 5 6 9 11 11 11 12 14 15 16 17 18 19 19 19 19 19 20 19 19 19 19 19 19 18 18 18 18 18 18 18 18 19 18 18 18 17 17 17 17
8 9 9 10 10 12 13 14 14 15 16 16 18 19 18 18 19 19 19 20 21 22 21 20 20 20 20 19 19 19 19 19 19 19 19 19 19 18 18 18 18 18 18 18
14 13 14 14 14 15 16 16 16 17 17 18 18 19 20 20 19 19 19 20 20 20 19 19 19 20 20 20 19 19 19 19 19 19 18 19 19 18 19 18 18 18 18 17
16 16 16 16 16 16 16 16 17 18 17 18 18 19 19 19 19 20 21 22 20 19 19 19 19 19 20 20 19 18 18 19 19 19 19 19 19 18 19 19 18 18 17 17
16 16 16 16 17 17 17 17 18 18 18 19 19 19 19 19 19 19 19 20 19 19 18 19 20 21 21 21 18 18 18 19 19 19 19 18 19 19 19 18 18 17 17 18
16 16 16 17 17 17 17 17 17 17 18 18 18 18 18 18 17 19 20 18 18 18 19 20 21 21 22 20 19 19 19 19 19 19 19 19 19 19 18 18 18 17 18 18
16 16 16 16 16 17 18 18 17 17 18 17 17 16 17 18 18 18 18 18 19 19 20 20 21 22 23 19 19 19 19 19 19 19 19 19 18 18 17 18 18 18 18 18
16 16 16 16 17 17 17 17 17 17 17 17 17 17 17 17 18 18 18 19 19 18 20 22 22 22 19 19 19 20 20 19 19 19 19 19 18 18 18 18 19 18 19 19
17 17 17 16 16 16 16 17 18 17 17 18 18 17 17 17 17 18 18 19 19 19 19 18 19 20 19 20 20 20 19 19 18 18 19 19 19 19 19 19 19 18 18 18
18 18 18 18 18 18 18 18 19 19 18 18 18 18 17 17 17 17 18 18 18 18 18 18 18 19 19 19 19 18 18 18 18 19 19 20 20 20 20 19 19 18 18 18

GFSNGP_con_lsi_069.txt.gz
Lid_Strength_Index
11 10 10 10 10 10 11 11 15 13 12 10 9 8 8 7 7 7 6 6 6 5 5 4 5 6 7 7 7 6 6 8 9 9 8 7 8 8 7 8 8 8 8 9
12 10 10 11 10 10 10 10 11 10 11 8 8 8 7 6 6 6 6 5 5 5 5 4 5 6 7 8 7 7 8 9 8 9 8 8 8 8 8 8 8 8 9 8
15 11 11 15 11 10 10 9 10 12 10 8 9 8 8 7 7 6 6 5 5 5 5 5 6 7 8 9 8 7 8 8 8 8 8 8 8 8 9 9 8 8 8 7
15 14 19 11 8 8 9 9 9 9 9 8 8 8 7 7 7 6 5 5 5 5 5 6 7 8 8 8 8 8 9 8 8 7 8 8 8 8 8 8 9 9 8 7
16 16 13 11 9 9 10 10 8 9 9 8 8 7 7 6 5 5 5 5 5 5 6 7 7 7 7 6 6 6 7 7 7 7 7 6 7 8 8 9 8 7 7 8
16 17 18 12 8 6 7 13 7 7 8 7 7 11 9 6 5 5 5 5 4 5 5 6 6 5 5 5 6 7 5 5 6 6 7 8 8 9 8 7 7 7 8 10
16 17 14 9 7 6 14 13 7 7 7 7 9 8 7 5 6 5 5 5 5 5 6 6 5 4 6 6 6 6 6 5 5 6 7 7 7 7 8 8 10 12 12 12
15 17 18 7 8 11 9 7 6 7 7 7 6 6 5 5 5 5 5 5 5 6 6 6 5 5 6 7 6 6 6 6 7 7 6 7 8 10 9 10 12 13 14 14
13 13 8 7 7 6 6 6 7 7 6 6 7 7 5 5 6 6 6 6 6 6 6 6 6 6 7 7 7 7 7 8 9 9 9 9 10 11 12 12 14 15 15 15
11 9 9 8 6 5 5 6 5 6 6 5 6 6 7 7 7 7 7 7 7 7 7 7 7 7 7 8 8 8 10 10 11 12 12 13 12 12 14 16 16 15 16 17
11 9 8 7 6 6 5 5 5 5 5 6 6 7 7 7 7 7 7 7 7 7 7 8 8 9 9 9 9 11 12 12 13 13 14 15 15 15 16 17 16 17 18 17
12 8 8 7 6 6 6 6 5 5 6 6 6 6 7 8 7 7 8 7 7 8 10 10 10 10 10 10 11 13 14 14 15 16 16 16 16 16 15 16 15 15 16 17
9 6 6 6 5 5 6 6 5 5 5 6 6 6 7 8 7 9 8 8 10 11 12 14 15 15 14 13 14 15 16 15 15 15 15 16 16 17 18 16 15 15 16 16
5 5 7 6 7 5 5 5 5 5 6 6 6 7 7 8 8 8 10 12 13 14 15 15 16 16 15 15 15 15 15 16 16 17 17 17 17 17 17 17 18 17 16 16
6 5 6 5 5 6 6 6 7 7 7 7 7 8 8 11 12 13 13 14 15 16 16 16 16 16 16 17 16 16 16 17 17 18 18 17 17 17 16 17 17 17 16 17
6 6 6 6 6 7 7 7 7 8 8 10 13 14 15 16 16 17 16 16 18 19 19 18 18 17 16 17 18 18 18 18 17 17 17 17 17 17 17 18 18 18 18 18
8 8 8 8 8 10 11 11 11 12 14 15 16 16 17 17 18 18 18 18 18 18 18 18 18 17 17 17 17 18 19 19 18 18 18 18 18 18 18 18 19 19 19 21
10 10 10 9 11 12 13 14 15 15 16 17 17 17 18 18 18 19 18 18 19 20 19 19 19 19 19 18 18 19 19 19 19 19 19 19 20 19 19 19 19 19 20 19
11 12 12 13 13 14 15 16 16 16 17 17 17 18 18 18 18 19 20 20 21 22 21 20 20 20 20 19 19 19 19 19 19 19 19 20 20 19 20 21 21 21 21 21
14 14 14 15 15 15 17 16 17 18 17 18 18 18 20 20 20 21 21 22 21 21 20 20 20 21 20 20 19 19 19 20 20 20 20 21 22 22 22 21 21 22 23 23
16 16 16 17 17 17 17 17 18 19 18 18 19 20 21 20 20 21 21 22 20 19 19 20 20 20 21 20 19 19 20 20 21 21 21 23 23 23 23 24 24 24 24 23
17 17 18 18 18 18 18 18 18 19 19 19 19 19 20 21 21 21 20 21 20 19 20 21 21 22 22 21 19 20 20 21 21 21 22 23 24 25 25 25 25 24 24 25
17 17 18 18 19 18 18 18 18 19 19 19 20 20 19 19 19 21 21 19 19 21 21 22 23 23 23 21 21 21 22 23 23 22 22 22 22 23 24 24 23 23 25 23
17 17 18 17 17 18 19 18 18 19 19 19 19 18 19 20 20 19 20 21 22 22 22 23 23 23 23 22 22 23 25 26 25 27 26 28 29 25 22 24 23 23 24 27
17 17 17 17 18 18 18 17 18 18 19 19 19 19 19 19 20 20 20 20 20 22 23 23 23 23 23 26 27 28 29 24 24 23 23 25 27 29 28 25 24 23 24 24
18 19 19 19 19 19 19 18 19 19 19 20 20 20 19 19 19 20 20 20 20 21 21 23 22 24 26 27 29 29 28 26 24 24 27 28 29 28 27 24 24 25 28 30
19 19 19 20 20 20 19 20 21 20 19 20 21 20 20 20 20 20 21 21 22 23 24 24 24 24 25 26 26 27 27 27 27 26 30 31 31 30 26 27 30 31 29 28

GFSNGP_con_lsi_072.txt.gz
Lid_Strength_Index
11 10 10 11 11 10 11 12 14 12 12 10 9 9 8 8 8 8 7 6 5 6 5 5 5 5 5 6 7 5 7 6 6 6 6 8 8 8 8 7 7 7 9 8
13 10 10 12 11 10 10 11 11 11 12 8 7 9 8 8 7 8 7 7 6 5 5 5 5 6 6 7 7 7 8 8 7 7 8 9 8 9 8 8 9 8 9 9
16 11 12 15 12 11 11 10 10 12 10 8 8 8 9 8 8 8 7 6 5 5 5 5 5 6 6 7 8 8 8 8 8 8 9 9 9 8 9 9 9 9 9 9
16 14 20 13 8 9 10 9 9 10 9 9 8 8 8 8 7 7 6 5 5 5 5 6 6 7 7 7 7 8 8 8 8 8 9 9 9 9 9 9 9 8 8 8
17 17 14 12 10 10 10 11 8 10 9 9 9 8 9 7 6 5 6 5 5 5 6 7 8 8 8 8 8 8 8 8 8 9 9 8 9 9 9 9 9 8 7 7
16 18 20 13 9 7 8 13 8 8 9 9 9 12 10 6 5 5 5 5 5 6 6 7 8 8 8 9 9 9 7 7 7 8 8 8 8 8 9 9 8 8 8 10
17 18 15 9 8 7 14 13 8 7 8 8 9 8 7 6 5 5 5 5 5 6 6 8 8 8 9 8 8 6 6 7 7 7 9 9 8 9 9 10 10 12 13 13
15 18 19 7 8 11 9 7 7 7 6 7 7 7 6 6 6 5 5 5 5 6 7 7 7 7 8 8 7 7 7 8 8 9 8 8 9 10 10 11 13 14 14 16
13 13 8 8 8 7 6 7 7 7 6 6 7 7 6 6 6 6 6 7 6 7 8 8 7 7 8 8 8 8 8 9 9 9 9 10 11 12 12 13 14 14 15 16
11 10 9 7 6 6 6 6 6 6 6 6 7 7 7 7 7 7 7 7 7 7 8 8 7 7 8 8 8 9 11 11 12 14 14 14 14 14 15 16 16 15 16 17
11 10 8 7 6 6 6 5 6 5 6 6 6 7 7 7 7 7 8 7 7 7 8 9 8 9 9 9 10 12 13 14 15 16 16 17 17 17 17 16 16 16 17 17
13 8 8 8 6 5 6 7 6 5 5 7 6 7 7 8 8 8 8 8 9 10 11 13 12 12 11 11 12 13 14 15 16 16 17 17 17 17 15 16 15 16 16 17
9 7 6 6 6 6 7 6 6 6 6 6 6 7 8 8 8 10 9 10 13 15 15 15 15 15 14 13 13 15 15 16 16 15 16 16 16 17 18 17 16 16 16 16
6 6 8 7 7 6 6 6 6 7 7 8 8 8 8 9 10 12 14 15 15 16 16 16 17 16 15 15 16 16 16 16 16 16 17 17 17 16 17 17 18 17 16 16
8 6 6 6 6 7 6 7 8 9 11 13 11 11 12 13 15 15 16 16 16 17 17 17 17 17 15 15 15 15 16 16 16 16 17 17 17 17 17 17 17 17 17 17
8 7 7 7 8 8 7 8 11 13 14 15 16 17 17 17 17 18 17 17 18 19 17 17 17 16 16 16 16 16 16 16 16 17 17 18 18 18 18 18 18 18 18 18
10 11 10 10 11 11 12 13 14 15 15 16 17 17 17 17 18 18 18 18 18 18 17 17 17 17 16 16 17 18 17 17 18 18 19 19 19 19 19 19 19 19 20 20
11 12 13 12 13 14 15 15 15 16 17 16 17 18 18 18 19 19 19 19 19 20 19 19 18 18 18 18 19 19 19 19 19 19 20 20 20 19 19 19 19 20 20 19
13 13 13 14 14 15 16 16 16 16 17 17 17 18 19 19 19 19 19 20 21 22 21 20 19 20 19 19 19 20 20 20 20 20 20 20 21 20 21 21 21 22 21 21
15 16 16 16 16 16 17 17 17 17 17 18 19 20 21 21 21 21 21 22 21 21 20 20 20 21 20 20 19 20 20 21 20 20 21 21 21 22 22 22 22 23 24 23
17 17 17 17 18 18 18 18 18 19 19 19 20 21 21 21 21 21 21 22 21 21 21 21 22 21 20 20 20 20 21 21 22 23 23 23 24 24 25 26 25 25 25 25
17 17 17 18 18 19 18 18 18 19 19 20 20 21 21 21 21 21 20 21 21 22 22 22 22 22 21 21 21 22 22 23 23 23 24 24 24 25 25 26 26 26 27 28
17 17 18 18 19 19 19 19 19 19 20 20 20 20 20 20 20 22 23 21 21 22 22 23 23 23 23 23 24 25 26 26 27 28 28 28 28 29 28 27 25 25 26 25
17 18 18 18 18 19 20 19 19 19 19 20 20 20 21 22 22 21 22 23 23 23 23 23 23 24 25 25 26 26 26 26 28 32 31 31 33 33 31 31 26 25 25 27
18 18 18 18 19 19 19 19 19 19 20 20 20 20 20 20 22 21 21 22 22 23 23 24 24 25 26 27 28 30 31 32 32 32 33 34 34 34 33 31 30 29 30 32
20 20 20 20 19 19 19 19 20 20 21 22 22 22 21 21 21 22 22 23 23 23 23 24 25 27 29 29 31 33 32 27 27 29 33 34 34 32 33 32 33 34 35 33
20 20 20 21 21 20 20 21 21 22 23 24 24 23 22 22 23 23 25 25 25 27 29 31 30 29 29 32 31 32 31 31 31 32 35 35 33 33 35 35 36 35 34 32

GFSNGP_con_lsi_075.txt.gz
Lid_Strength_Index
11 11 10 11 11 11 13 12 14 13 13 10 9 9 9 9 9 9 8 7 6 6 5 4 4 4 4 4 3 3 3 3 4 5 5 5 4 4 5 5 5 6 7 7
13 11 10 12 11 12 12 11 11 11 12 9 8 9 9 8 9 9 8 8 6 6 5 5 5 5 5 5 6 5 6 6 7 6 7 8 8 8 9 8 9 9 9 9
16 12 13 16 13 11 11 11 11 13 10 8 9 8 8 9 9 8 8 8 6 5 5 5 6 4 4 5 6 6 7 8 8 8 7 8 8 9 9 9 9 9 10 9
16 14 21 13 9 9 10 10 9 9 10 9 8 7 8 8 8 8 8 8 6 5 5 6 5 5 6 6 7 7 8 8 8 8 8 9 9 9 10 9 10 9 9 9
18 17 14 12 10 10 12 12 8 9 9 9 9 9 9 7 8 7 7 6 5 4 5 5 5 6 6 7 8 8 8 8 8 8 9 9 9 10 10 10 10 9 8 8
16 18 20 13 9 7 8 15 8 8 9 9 9 12 10 8 7 7 6 5 6 6 5 5 6 6 7 8 8 8 9 9 9 8 9 9 10 10 9 8 8 8 10 10
16 18 15 10 8 7 15 14 8 8 8 8 10 9 8 8 6 5 5 5 6 6 6 6 6 6 7 8 8 8 9 8 7 7 8 8 9 9 9 9 10 13 14 14
15 17 19 8 9 12 9 8 7 8 8 7 8 9 7 7 6 5 5 5 6 6 7 7 8 8 9 8 8 7 7 7 8 8 8 9 9 10 11 12 13 15 15 16
13 14 8 8 8 7 6 7 7 7 7 6 7 8 8 7 6 6 6 6 6 7 8 8 8 8 9 9 7 7 8 9 9 9 10 11 11 13 14 14 15 16 16 17
12 9 9 8 7 6 6 6 6 6 7 7 7 7 8 7 7 7 7 7 8 8 9 10 8 8 8 8 8 9 10 12 12 13 14 14 14 14 14 15 15 16 17 18
11 9 8 7 7 6 6 5 6 6 6 6 6 7 7 7 7 8 8 8 8 9 10 9 9 9 9 9 10 12 13 14 15 15 16 17 16 15 16 16 14 15 16 17
12 8 8 8 6 5 6 6 6 6 5 6 6 6 7 8 8 8 8 9 10 12 12 11 11 11 11 11 12 13 15 15 16 16 17 16 17 17 15 15 15 15 16 17
9 7 7 6 6 5 6 7 6 6 6 6 6 7 8 9 10 12 13 13 14 14 15 15 15 15 14 14 14 15 16 16 16 16 16 17 17 17 18 16 15 15 15 15
7 8 7 7 7 6 5 6 8 10 10 9 8 9 10 13 14 15 16 16 16 16 16 17 17 17 16 15 16 16 16 16 15 15 15 15 17 17 17 16 17 17 16 16
9 9 7 7 7 7 7 7 10 12 13 14 13 14 15 17 17 18 17 17 17 17 17 17 17 17 15 15 15 15 15 16 16 16 16 16 16 16 16 17 18 18 17 17
10 8 8 9 10 11 10 11 13 14 15 17 18 18 18 18 19 18 18 17 18 18 18 18 18 17 16 16 16 16 16 16 16 16 17 18 18 19 19 19 19 19 19 19
11 11 12 11 13 14 14 14 14 16 17 17 18 17 18 18 19 19 19 19 19 19 18 18 18 17 16 16 17 17 17 18 18 19 19 20 20 20 20 20 20 21 21 21
11 12 13 13 14 15 16 16 17 17 17 17 18 19 19 19 20 20 20 19 20 20 19 18 18 18 18 18 18 19 19 19 20 20 21 21 20 20 21 21 21 21 21 21
14 14 14 15 15 16 16 17 17 17 18 18 19 20 20 20 20 20 20 21 21 21 21 20 18 19 19 19 20 20 20 20 20 21 21 21 21 21 22 22 23 24 23 23
16 16 16 17 16 16 17 17 18 18 18 18 19 20 21 21 20 21 21 23 22 22 21 21 20 20 20 20 20 20 21 22 22 22 23 23 24 24 24 24 24 26 26 25
17 18 18 18 18 18 18 18 19 20 19 19 20 21 21 21 21 21 23 24 23 22 21 21 21 21 21 21 22 22 23 23 24 25 25 26 27 27 28 28 28 29 30 31
17 18 18 18 19 19 18 18 19 20 20 20 20 21 21 23 23 23 23 24 23 22 22 22 22 23 23 23 23 24 24 25 26 26 28 28 30 32 33 34 33 32 31 31
17 18 18 19 19 19 18 19 20 20 21 21 22 22 21 21 22 24 25 23 22 23 23 24 24 25 25 25 26 27 28 28 29 31 33 35 36 37 36 35 34 33 33 31
17 17 18 18 18 19 20 20 20 20 21 21 21 21 22 23 24 22 23 23 24 24 25 25 26 26 27 28 29 30 32 33 34 36 35 36 39 39 37 37 34 34 34 34
19 18 18 19 19 20 20 20 20 21 21 21 21 21 21 21 23 22 23 23 23 25 26 26 27 28 30 31 33 33 33 34 36 37 38 38 38 37 37 36 37 37 37 36
20 20 20 20 19 20 20 20 22 21 22 23 23 23 23 23 23 24 25 25 25 26 28 29 30 30 32 33 34 34 34 32 35 35 37 36 36 35 36 35 37 36 37 35
20 20 20 21 21 21 21 22 23 24 24 24 24 23 24 25 25 26 28 29 30 30 31 32 32 32 34 36 35 35 34 34 35 35 38 37 36 37 38 38 38 38 37 36

GFSNGP_con_lsi_078.txt.gz
Lid_Strength_Index
12 11 11 12 12 11 12 13 15 14 13 10 9 9 8 9 9 9 9 8 8 7 6 5 5 4 4 4 4 4 3 4 4 3 3 3 4 3 4 3 3 3 5 6
14 11 11 12 11 12 12 12 13 13 13 9 8 8 9 8 9 9 9 8 8 7 7 6 5 5 5 5 4 4 4 3 3 4 4 4 5 5 5 6 6 6 7 8
17 13 13 16 12 12 12 11 11 15 12 9 9 9 9 8 9 9 9 8 7 6 5 4 5 5 5 5 6 4 4 4 5 6 7 7 7 8 8 9 9 9 9 9
17 15 21 13 9 9 11 10 10 10 10 9 8 8 8 8 8 8 8 8 8 7 5 5 5 6 5 4 5 5 6 6 7 7 8 8 8 9 10 9 9 10 10 10
18 18 15 12 11 11 12 12 9 10 9 8 8 10 10 9 8 7 7 7 8 7 5 5 5 5 5 5 6 6 7 8 8 8 9 9 10 10 10 10 10 10 10 9
16 19 21 13 9 7 8 15 8 8 9 9 10 13 11 9 8 7 8 7 6 5 5 5 5 5 6 6 7 8 8 8 8 8 9 9 10 10 10 10 10 11 12 11
17 18 15 10 8 7 16 14 8 7 8 9 11 10 8 8 8 7 6 6 5 5 5 5 5 5 6 7 8 8 8 9 9 9 9 9 9 10 10 12 13 14 15 14
15 17 19 8 9 13 10 8 7 7 7 7 7 7 8 8 7 6 6 5 5 6 6 5 5 5 7 8 7 8 9 10 10 9 8 9 10 11 11 13 14 15 16 16
13 14 9 7 8 7 6 7 7 7 7 7 7 8 8 7 6 6 6 5 6 7 7 7 7 7 8 8 9 9 9 9 9 10 10 10 11 12 13 14 15 15 16 17
12 10 9 8 7 6 6 6 6 6 6 6 7 7 8 8 7 7 7 7 7 7 8 9 9 9 9 9 8 9 11 11 11 12 13 13 13 13 13 14 15 16 16 17
11 9 8 7 7 6 6 6 6 6 6 6 7 7 7 7 8 8 8 9 9 10 10 10 10 10 10 10 10 11 12 13 14 14 15 16 16 15 15 15 14 16 17 17
13 9 9 8 6 5 6 6 5 6 6 6 7 7 8 8 8 9 10 11 12 12 13 13 14 13 12 12 12 13 15 16 16 16 16 17 17 17 15 15 15 15 15 17
9 7 8 7 7 6 6 6 7 8 8 8 8 8 9 12 12 14 14 15 15 16 16 16 16 16 15 14 14 15 16 16 16 16 17 17 17 17 18 16 15 15 15 15
7 8 8 8 9 7 7 8 9 11 12 12 13 13 14 15 15 16 16 17 16 16 17 16 17 17 16 15 16 16 16 16 16 16 17 17 17 17 16 16 17 17 15 16
9 9 8 8 9 10 10 10 13 14 15 15 15 16 17 18 18 18 17 17 17 17 17 17 17 17 16 16 16 16 17 17 17 17 16 17 17 17 17 17 17 17 18 18
10 9 10 11 12 13 12 13 14 15 16 17 17 18 18 18 19 19 19 18 19 20 19 19 19 18 17 17 17 17 17 17 17 17 17 18 18 18 19 19 20 20 21 20
11 12 12 12 14 15 15 15 16 16 17 17 18 18 18 19 20 20 20 20 20 20 19 19 19 18 17 17 17 18 18 18 18 19 19 20 20 20 20 21 21 21 22 21
12 12 12 13 14 15 16 16 17 17 18 18 18 20 20 21 21 21 21 20 20 20 20 19 19 19 18 18 18 18 19 20 20 21 20 21 22 22 22 22 22 23 23 23
14 15 15 15 15 15 17 17 18 18 19 20 21 21 21 20 20 21 21 21 21 22 21 19 18 19 19 19 20 20 21 21 21 21 22 23 24 24 24 25 27 28 27 27
16 16 17 17 17 17 18 18 18 19 19 20 20 21 22 22 22 22 22 23 21 20 20 20 20 21 21 21 21 22 22 23 23 25 25 26 27 29 29 28 28 30 33 31
17 18 18 18 19 19 19 19 19 20 20 20 21 22 22 22 22 22 23 24 22 21 21 22 22 22 22 22 22 23 24 25 26 27 28 31 32 32 33 35 34 35 34 34
18 19 19 19 19 19 19 19 19 20 21 21 22 22 23 24 23 23 23 23 22 23 23 23 24 24 24 24 24 26 26 27 28 29 31 33 34 36 38 37 36 36 36 36
18 18 19 19 20 20 20 20 20 21 22 22 22 22 22 22 23 24 26 23 23 24 24 25 25 26 26 27 28 29 31 31 31 32 34 37 38 39 38 38 38 38 38 35
18 18 18 18 18 19 21 20 20 20 21 21 22 22 23 24 24 23 24 25 25 26 26 27 28 28 29 29 30 31 32 34 36 38 36 39 42 41 40 40 37 38 38 37
19 18 19 19 20 20 20 20 21 21 22 22 22 21 22 22 24 24 24 25 25 27 28 29 29 30 32 34 35 35 37 38 40 40 40 40 40 40 40 39 40 40 39 39
21 21 21 20 21 21 21 21 22 22 23 24 24 24 24 24 24 25 26 27 27 28 30 32 35 37 37 35 37 38 37 34 37 38 39 38 38 37 39 38 39 38 38 38
20 20 21 22 21 22 21 22 23 24 23 24 25 24 25 26 27 27 29 30 32 33 37 38 37 35 36 38 36 37 36 37 37 37 40 40 40 41 41 40 39 39 38 38

GFSNGP_con_lsi_081.txt.gz
Lid_Strength_Index
12 11 11 12 11 10 12 11 14 12 11 9 8 7 6 7 6 7 7 6 5 5 4 4 3 3 3 3 4 3 3 3 3 2 3 2 1 1 0 1 0 0 1 1
14 11 12 13 11 10 10 10 11 11 11 7 6 6 6 7 7 7 6 7 6 5 4 4 4 3 3 3 3 3 3 3 2 2 2 2 2 2 2 2 2 1 2 3
16 13 14 15 12 10 10 9 10 12 9 7 8 7 7 7 7 7 6 6 6 5 4 4 3 3 3 2 2 3 3 3 2 2 3 2 2 3 3 3 5 6 7 7
16 15 21 12 8 8 10 9 8 9 8 7 7 6 6 5 6 7 7 6 6 6 5 3 3 3 2 2 2 2 2 2 2 2 4 6 6 6 8 8 9 9 9 9
17 18 15 12 10 10 11 11 8 8 7 7 6 7 6 6 6 7 6 5 5 5 5 3 3 3 3 3 3 3 3 4 5 5 7 7 8 9 10 10 10 10 9 10
16 18 20 13 9 7 7 14 8 7 8 7 8 10 8 7 6 6 6 6 6 5 4 3 3 3 3 4 4 5 6 6 6 6 7 9 10 10 10 10 11 11 12 12
15 17 14 9 8 7 14 13 7 7 7 7 8 7 6 6 6 6 4 5 4 4 4 3 3 3 4 5 6 6 7 7 8 8 10 10 10 10 12 12 13 15 15 15
15 17 18 8 8 12 9 7 7 6 6 7 6 6 6 6 6 5 5 6 4 4 5 4 3 4 5 7 7 7 8 9 10 10 10 10 10 11 12 13 14 15 16 16
13 13 8 7 7 6 6 7 6 6 5 6 6 6 5 6 6 6 6 6 6 6 5 5 4 5 8 8 8 9 10 11 11 11 11 10 11 12 13 13 14 15 16 17
11 9 8 7 6 5 5 6 5 5 5 5 6 6 6 6 7 7 7 7 7 7 8 9 8 8 9 9 10 10 11 11 11 13 13 13 13 13 13 14 14 15 16 17
10 8 8 6 6 6 6 6 5 4 4 5 6 6 6 7 8 8 8 8 8 9 10 10 10 10 9 9 9 11 12 13 14 14 15 16 15 15 15 14 14 15 16 17
11 8 8 8 6 6 7 6 5 5 5 6 5 7 8 10 10 11 11 12 12 13 14 14 13 12 11 11 12 13 15 15 15 15 16 16 16 17 15 15 15 15 15 15
9 8 8 7 6 7 7 9 10 10 9 9 9 10 11 13 13 14 13 14 15 15 15 15 15 15 15 14 14 15 16 16 16 16 16 17 17 17 18 17 15 15 15 16
9 9 8 7 8 8 8 10 11 12 13 13 13 13 14 14 15 16 16 15 15 16 16 16 16 17 16 16 16 16 16 16 16 17 17 17 17 16 16 16 16 16 15 15
11 10 9 9 9 10 10 10 13 14 14 15 14 15 15 16 16 17 17 17 17 17 17 17 17 17 16 16 17 17 17 18 18 18 18 17 16 16 15 15 16 17 17 18
11 10 10 11 12 13 12 13 14 15 15 16 16 16 17 17 18 18 18 18 19 20 20 20 19 18 17 18 18 18 19 19 18 18 17 17 17 17 17 17 18 19 19 19
14 13 13 13 13 14 15 15 15 16 16 17 17 17 18 18 19 20 20 20 20 20 20 20 20 18 18 19 19 18 18 18 17 17 18 18 18 18 19 19 20 21 21 22
13 13 13 13 13 14 15 15 16 17 18 18 19 19 19 20 21 20 20 20 20 20 20 20 19 19 18 17 17 17 18 18 19 19 20 20 20 20 20 20 21 21 22 23
14 14 14 14 14 15 16 17 17 18 19 19 20 21 21 21 21 21 21 21 22 22 20 19 18 19 19 19 19 19 19 20 20 21 21 22 22 21 22 22 23 23 23 23
16 16 16 16 16 17 18 18 19 19 20 20 21 21 22 22 22 22 22 23 22 21 20 20 20 20 20 20 20 20 21 21 22 23 23 23 24 24 24 25 25 25 24 25
17 17 18 18 19 19 19 19 20 21 21 21 22 22 22 21 21 21 22 23 22 21 21 21 21 22 22 22 22 22 23 24 24 24 25 25 25 26 26 26 26 26 26 26
17 18 18 18 19 20 19 20 20 21 21 22 22 22 22 23 23 23 23 23 22 22 23 23 24 24 24 23 24 24 24 25 25 25 26 26 26 27 27 27 27 27 26 26
18 18 18 19 20 20 20 20 21 21 22 22 23 23 22 22 22 24 25 23 23 24 24 25 25 26 26 25 25 25 26 26 26 27 27 27 27 27 27 27 27 27 26 26
19 19 19 19 19 20 21 20 20 20 21 21 22 22 23 24 24 24 24 25 26 25 25 25 26 26 26 25 25 26 26 27 27 27 28 29 27 27 26 27 26 26 26 27
19 19 19 20 21 21 21 21 21 22 22 23 22 23 23 23 24 24 24 24 24 25 25 27 27 27 26 26 27 27 27 27 27 27 26 26 27 26 26 26 27 26 26 26
21 21 21 21 21 21 21 21 22 22 23 24 24 24 24 23 23 24 24 25 25 26 26 26 26 26 26 27 27 27 26 26 25 26 26 26 25 25 26 27 27 27 27 26
20 20 21 22 22 22 21 21 22 23 23 23 24 24 24 24 25 25 26 26 27 27 27 27 26 27 26 25 25 25 25 25 27 24 25 25 25 26 27 27 27 27 27 27

GFSNGP_con_lsi_084.txt.gz
Lid_Strength_Index
10 9 9 10 11 10 11 10 12 11 10 8 7 6 5 5 5 5 4 4 4 4 3 3 3 2 2 2 1 1 1 2 2 1 1 1 1 0 0 0 0 0 0 0
13 10 10 11 10 10 10 9 9 9 9 6 5 5 5 5 5 5 5 4 4 3 3 3 3 3 2 2 2 1 2 2 2 1 1 1 1 0 1 0 0 0 1 1
15 11 11 14 11 10 9 8 9 11 8 6 6 6 5 5 5 5 5 5 5 4 3 3 3 2 2 2 1 2 2 2 1 1 1 1 1 1 1 1 1 1 1 1
14 13 19 11 9 9 9 8 7 7 7 6 5 5 4 4 5 5 5 5 5 5 3 2 2 2 2 2 2 2 2 2 1 1 1 1 1 1 1 1 2 4 7 8
15 15 12 13 11 11 11 10 6 7 6 5 5 5 5 4 4 4 4 4 4 4 4 2 2 2 2 2 2 2 2 2 2 1 2 2 2 3 5 7 8 9 9 10
13 17 17 12 8 7 7 13 7 7 7 7 6 9 7 4 4 4 3 3 4 4 4 3 2 2 2 2 2 3 2 2 2 2 3 3 6 9 9 10 11 12 13 13
14 17 12 8 7 7 16 15 7 7 6 6 7 6 5 4 4 3 3 3 3 3 3 3 2 2 3 3 3 2 2 3 4 4 6 8 10 11 12 14 14 15 16 15
13 16 17 7 7 12 10 7 6 6 6 6 5 5 4 4 4 4 4 5 3 3 4 3 2 2 3 4 4 5 6 8 9 9 10 11 12 13 13 14 15 16 16 16
11 11 7 6 7 5 5 6 6 6 5 5 5 5 4 5 5 5 5 6 5 5 6 5 3 4 7 7 8 9 10 10 11 11 11 12 13 13 14 14 15 15 16 17
9 8 7 7 5 6 5 5 5 4 4 4 5 4 5 5 5 5 7 7 7 8 9 9 8 8 8 9 9 11 12 12 13 13 13 12 13 13 13 14 15 16 16 17
8 7 6 6 5 5 6 5 5 4 4 4 4 5 5 5 7 7 8 9 10 10 11 11 10 9 9 10 11 12 13 14 14 15 15 16 16 15 15 15 14 16 17 17
10 8 8 7 5 4 5 6 7 6 5 4 4 5 6 8 9 10 11 12 13 13 14 14 13 13 11 11 11 13 14 15 15 15 16 16 16 17 15 15 15 15 15 15
8 7 6 5 4 5 6 6 8 8 8 8 8 7 8 11 12 13 13 14 15 15 15 15 15 15 15 13 13 14 15 15 15 16 17 17 17 18 19 17 16 16 16 16
9 8 7 7 9 8 7 6 8 9 10 10 10 10 11 13 14 15 16 15 15 16 16 16 17 17 16 15 15 15 16 16 16 17 16 16 16 17 16 17 18 17 17 17
10 10 9 9 9 10 8 8 9 11 11 12 11 13 13 14 15 16 16 16 17 17 17 17 18 18 17 17 17 17 17 18 17 17 16 16 16 16 16 16 17 18 18 17
11 10 10 11 12 12 12 10 10 12 13 13 14 15 16 16 17 18 18 17 18 19 19 19 19 18 17 17 18 18 17 17 17 17 16 16 16 16 17 17 18 18 18 18
13 12 12 12 13 14 14 13 13 13 14 15 16 16 17 18 18 19 19 19 19 19 19 19 19 18 17 17 17 18 18 17 17 16 16 16 17 17 17 17 18 19 20 20
13 12 12 13 13 14 15 15 15 15 16 16 17 18 19 19 20 20 20 19 20 21 20 19 18 18 17 17 17 17 18 18 18 18 17 17 17 17 17 18 18 19 20 21
14 14 13 13 13 14 15 16 17 17 18 19 19 20 20 20 20 20 20 20 20 21 20 19 18 18 18 17 17 17 17 17 18 18 18 18 18 18 19 19 20 20 20 21
15 14 15 15 15 16 17 17 18 19 19 19 20 21 21 21 21 21 21 21 21 20 19 19 19 20 20 19 18 18 18 18 19 20 20 20 20 21 22 22 21 21 21 21
16 16 17 17 18 18 18 18 19 20 20 20 21 22 22 21 20 19 20 21 21 20 20 20 20 20 20 19 19 19 20 21 21 21 22 22 22 22 22 22 22 22 22 22
17 18 18 18 18 18 18 18 19 19 20 21 21 21 21 22 22 22 22 22 21 21 21 21 22 22 21 21 21 21 21 22 22 22 22 22 22 22 23 23 23 23 22 22
17 18 18 18 19 19 18 19 20 21 21 22 22 22 22 21 21 22 24 22 21 22 22 23 24 23 23 22 22 22 22 23 23 23 22 22 22 23 23 23 23 22 22 22
18 18 18 18 18 18 20 20 20 20 21 21 21 21 21 22 22 22 23 23 24 23 23 24 24 24 23 22 22 23 22 22 22 23 23 24 23 23 23 23 23 22 22 22
18 18 18 19 20 20 20 20 21 21 21 21 21 21 21 21 22 22 22 23 23 23 23 25 24 24 22 22 23 23 23 23 23 22 23 23 23 22 22 22 22 22 22 21
19 19 19 19 19 19 19 19 20 20 20 21 22 21 21 21 22 22 23 23 23 23 22 22 23 22 22 22 23 23 22 22 22 23 22 22 22 21 21 22 22 21 21 22
17 17 17 18 19 19 18 19 19 20 20 21 22 21 21 21 22 22 22 22 22 22 22 22 22 23 22 22 22 22 21 21 24 21 21 21 21 20 21 22 22 22 22 22

GFSNGP_con_lsi_087.txt.gz
Lid_Strength_Index
9 9 10 10 10 9 10 10 12 10 10 8 6 6 5 5 4 4 4 4 3 3 3 3 3 3 2 2 2 1 1 2 2 1 1 1 1 1 1 1 1 0 1 0
11 9 9 10 9 9 9 9 9 9 9 6 5 5 5 5 4 5 4 4 3 3 3 3 3 3 2 2 2 1 2 2 1 1 1 1 1 1 1 1 1 0 1 1
14 9 11 13 10 9 9 9 9 11 8 6 6 6 5 5 5 4 4 4 3 3 3 2 2 2 2 2 2 2 2 2 1 1 2 1 1 1 1 1 1 1 1 1
14 12 17 9 8 8 10 9 8 8 6 6 6 5 4 4 4 4 4 4 3 4 3 2 2 2 2 2 2 2 2 2 2 2 2 1 1 1 1 1 1 1 2 2
15 14 11 9 8 9 11 11 8 8 6 5 5 5 5 4 4 4 4 3 3 2 2 3 3 1 2 2 2 2 2 2 2 2 2 2 2 2 1 2 5 6 8 10
13 16 17 11 8 7 7 14 8 8 7 7 6 10 8 4 4 4 3 3 3 3 2 2 3 2 2 2 2 3 2 2 1 1 2 2 2 3 5 7 10 12 14 13
13 14 12 8 7 6 15 15 8 8 7 8 7 6 5 4 4 3 3 3 3 3 3 3 2 2 3 2 3 2 2 1 1 1 2 4 7 9 11 13 14 14 16 15
13 14 16 6 7 12 10 7 7 7 7 7 7 4 4 4 4 4 4 3 3 3 3 2 2 2 3 4 4 4 6 7 8 9 9 10 11 13 13 13 15 17 17 18
10 10 8 5 7 5 6 6 6 6 5 5 6 5 4 4 4 4 4 3 4 5 7 7 4 4 7 8 7 9 10 11 11 12 12 12 13 13 15 16 16 17 17 18
11 9 8 6 5 5 5 6 6 5 4 4 5 4 4 4 4 4 5 6 7 8 10 10 9 8 8 9 10 11 13 13 13 14 14 14 14 15 15 16 16 17 18 18
9 8 7 7 6 6 6 5 6 6 4 4 4 5 4 4 6 7 9 9 9 11 12 13 11 10 10 11 12 13 14 15 16 16 16 17 17 16 16 16 16 17 18 17
12 7 7 6 5 6 6 6 6 6 6 5 5 5 6 9 11 11 12 12 13 13 14 14 15 14 12 12 13 14 16 16 16 17 17 17 18 18 16 16 16 16 17 17
8 6 5 5 4 6 6 5 5 6 6 7 7 8 10 13 13 14 14 14 15 15 16 17 16 15 15 15 14 15 16 17 16 17 17 18 18 18 20 18 16 16 17 17
8 7 6 7 9 8 8 6 5 6 7 8 8 9 12 13 14 16 16 16 15 16 17 17 17 18 16 16 16 16 16 16 17 17 17 18 18 18 18 18 19 19 18 18
10 8 9 9 8 9 9 9 8 8 9 10 11 13 13 14 15 16 16 16 16 17 17 17 18 18 17 16 17 17 17 17 16 16 16 16 16 17 18 18 19 19 19 18
11 9 9 10 10 10 10 11 11 11 11 12 14 15 16 16 17 17 17 17 18 19 18 18 18 17 16 16 16 17 17 16 16 16 16 16 16 17 17 18 19 20 20 19
13 12 11 11 11 11 12 13 13 13 13 14 15 16 17 17 18 19 19 18 18 18 18 18 18 16 16 16 17 17 17 16 16 16 16 16 16 17 17 18 19 20 21 19
13 12 12 12 12 12 13 14 15 15 16 16 16 18 19 19 20 20 19 18 19 19 18 17 16 16 16 16 16 16 16 17 17 17 17 17 17 17 17 17 18 18 19 19
13 14 13 13 12 13 13 15 16 16 17 18 19 19 20 20 19 19 18 20 19 20 19 17 17 17 17 16 16 16 16 16 17 17 17 18 17 17 18 18 19 19 19 20
14 14 15 15 15 15 16 16 16 17 17 18 18 18 19 19 19 20 20 22 21 19 18 17 17 18 17 17 17 17 17 18 19 19 18 19 19 20 20 20 20 20 20 20
16 16 17 17 17 17 17 17 17 18 19 18 19 20 21 20 19 19 21 22 21 20 19 19 19 19 18 18 18 18 18 19 19 19 20 20 20 20 21 20 20 21 21 21
16 17 18 18 18 18 18 17 18 18 18 19 19 19 20 21 22 22 21 22 21 21 20 20 21 20 20 19 19 19 19 19 20 20 20 20 20 21 21 21 21 21 20 20
17 17 18 18 19 18 18 18 18 19 20 20 21 21 21 21 20 21 24 22 21 22 21 21 22 21 21 20 20 20 20 21 21 21 21 21 21 20 21 21 20 21 21 21
17 17 18 17 17 18 20 19 19 18 19 19 20 19 20 21 22 21 22 23 23 23 23 22 22 22 21 20 20 20 20 20 20 20 20 21 20 21 21 22 22 21 21 21
17 17 17 18 19 19 19 19 19 19 19 20 21 20 20 20 21 21 21 22 22 22 22 23 22 22 21 21 20 20 21 21 20 20 20 21 21 21 21 21 21 22 21 20
16 16 16 16 16 16 17 17 19 19 19 20 20 20 20 20 21 21 21 21 21 21 21 21 20 20 20 20 20 20 20 20 20 21 21 21 21 20 21 21 21 20 20 19
15 15 16 16 16 16 16 16 17 18 18 19 20 20 20 20 20 20 20 20 20 20 20 20 20 21 20 20 20 20 19 20 23 21 20 20 20 19 20 20 20 19 20 20

GFSNGP_con_lsi_090.txt.gz
Lid_Strength_Index
10 11 11 11 11 10 11 10 13 11 11 9 7 7 7 6 5 5 4 4 4 4 4 3 3 3 3 3 2 2 2 2 2 2 1 1 1 1 1 1 1 1 1 1
12 9 10 12 11 10 10 9 9 9 10 6 6 6 6 5 5 5 5 4 4 3 3 3 3 3 3 3 2 2 2 2 2 2 2 2 2 1 1 1 1 1 1 1
15 11 11 14 10 10 10 8 9 12 10 7 7 6 6 5 5 5 4 4 4 4 3 3 3 3 3 3 2 2 2 2 2 2 2 2 2 2 2 2 1 2 1 1
15 13 18 10 7 8 9 9 8 8 8 7 8 6 5 4 5 5 5 4 4 4 3 3 2 3 2 2 2 3 3 2 2 2 2 2 2 2 2 2 2 2 2 2
16 15 12 10 9 9 10 10 9 10 9 8 7 6 5 4 4 4 4 4 4 3 3 3 3 2 2 2 2 3 3 3 2 2 2 2 2 2 2 2 2 5 8 9
14 17 18 11 9 7 7 14 8 8 9 9 8 11 9 5 4 4 4 3 4 3 3 3 3 2 3 3 3 3 3 2 2 2 2 2 2 3 6 9 12 13 14 14
15 16 12 8 8 8 15 14 8 7 8 8 10 8 6 5 4 4 4 3 3 3 4 3 2 2 3 3 4 3 2 3 4 5 5 7 9 10 11 13 14 15 16 16
14 15 17 7 8 13 9 7 6 6 7 7 7 6 5 5 5 4 4 4 4 4 5 5 4 3 6 7 7 7 9 10 10 10 10 11 13 13 14 15 16 16 17 18
11 12 8 7 8 5 5 6 7 7 7 6 6 6 5 6 5 5 5 6 6 8 9 9 8 7 8 9 10 11 12 12 12 12 13 13 13 14 15 16 17 18 19 19
11 8 8 7 6 6 5 6 7 7 7 6 6 5 5 6 7 8 9 10 10 10 12 12 11 11 11 11 11 12 13 15 14 15 15 15 15 15 16 16 17 18 18 19
10 8 8 7 6 6 6 6 7 7 7 7 6 7 9 10 11 11 11 12 12 12 13 13 12 13 12 12 13 14 15 15 16 17 17 17 17 17 17 17 17 18 18 18
13 8 8 8 8 7 7 7 7 8 8 6 8 9 10 12 13 13 14 13 13 13 14 14 14 14 14 14 14 15 16 16 17 17 17 17 18 18 16 17 17 17 17 18
9 7 7 7 7 7 8 7 6 7 7 7 9 10 12 14 15 15 15 15 15 16 16 16 17 16 15 14 15 16 17 17 17 17 18 19 19 20 21 19 18 18 17 17
8 7 8 8 9 7 8 8 6 7 8 10 10 11 13 15 15 16 16 16 16 16 16 16 16 17 15 15 16 16 16 17 18 18 18 19 19 20 21 22 23 20 18 18
10 9 8 8 8 9 9 9 9 10 11 12 13 14 15 17 18 17 16 16 16 17 17 16 16 16 15 15 15 15 15 16 16 17 17 18 18 19 19 20 21 20 20 19
11 9 9 10 10 10 11 11 12 12 13 14 15 16 17 18 19 19 18 18 18 19 17 17 17 16 15 15 16 16 15 15 15 16 17 17 18 19 20 21 21 21 21 19
14 14 13 13 13 12 13 13 14 14 14 15 16 16 17 18 19 19 19 18 18 19 17 17 16 15 15 15 15 16 16 16 16 17 17 18 18 19 20 21 22 22 22 20
14 14 14 14 14 13 14 15 15 16 17 17 17 18 18 18 19 19 19 19 19 19 18 17 16 15 15 15 16 16 17 17 17 17 17 18 18 18 18 19 20 21 21 20
14 15 15 15 14 15 15 16 16 17 17 18 18 19 19 19 20 20 20 20 20 20 19 17 17 17 16 16 16 16 17 17 18 18 18 19 19 19 19 20 20 21 21 21
15 15 16 16 16 16 17 16 16 17 17 17 18 18 19 19 19 20 20 21 21 21 18 19 18 18 18 17 17 18 18 19 19 19 20 20 21 21 21 21 21 21 22 22
16 17 17 18 18 18 18 18 19 20 19 19 20 21 21 21 20 19 21 23 21 20 20 20 19 19 19 18 18 19 19 19 20 20 21 21 21 21 21 22 22 22 22 23
17 17 18 18 19 19 18 18 18 19 19 19 19 20 20 21 21 21 21 22 21 21 21 20 20 20 19 19 20 20 20 20 21 21 21 21 21 21 22 22 22 22 22 23
17 17 18 19 19 20 19 19 20 19 20 20 21 21 22 22 21 22 24 21 21 21 21 21 21 20 20 20 21 21 22 22 22 22 22 22 22 23 24 23 22 22 23 24
17 17 17 17 18 19 20 20 20 20 20 20 20 19 19 21 21 21 22 22 23 22 22 22 21 21 21 21 21 22 21 22 22 22 22 23 22 23 23 24 24 22 23 24
17 17 18 18 19 19 19 18 19 20 20 21 21 20 20 19 21 21 21 21 21 21 22 22 21 21 21 21 22 23 23 23 22 21 22 22 22 22 22 23 24 25 24 23
16 17 16 16 16 16 16 17 18 18 19 20 20 20 20 20 21 21 21 21 21 21 22 22 22 21 21 21 21 21 21 21 21 22 22 22 22 22 23 24 24 23 23 23
15 15 15 16 16 16 16 16 17 18 18 19 20 19 19 19 20 20 20 20 20 20 21 21 21 22 21 20 20 20 20 22 25 22 22 22 22 22 23 23 23 23 23 23